Wetterdaten: Sonntag, 16.04.2017
Datum Zeit Temp. A. Feuchte A. Luftdruck Regen Wind Richtung Richtung Sonnenschein ET UV Solar Taupunkt Windchill Windben Empfang
16.04.2017 00:00 9,4 C 91 % 1013,5 hPa 0,0 l/m 8,4 km/h (2 Bft) W-SW 244 0 min 0,000 mm 0,0 UV-I 0 W/m 8,0 C 7,9 C 11,3 km/h (2 Bft) 94,64 %
16.04.2017 00:02 9,4 C 91 % 1013,5 hPa 0,0 l/m 8,1 km/h (2 Bft) W 269 0 min 0,000 mm 0,0 UV-I 0 W/m 8,0 C 8,2 C 12,9 km/h (3 Bft) 95,65 %
16.04.2017 00:04 9,4 C 91 % 1013,4 hPa 0,0 l/m 8,6 km/h (2 Bft) W-SW 248 0 min 0,000 mm 0,0 UV-I 0 W/m 8,0 C 7,8 C 12,9 km/h (3 Bft) 92,68 %
16.04.2017 00:06 9,4 C 91 % 1013,5 hPa 0,0 l/m 9,0 km/h (2 Bft) SW 229 0 min 0,000 mm 0,0 UV-I 0 W/m 8,0 C 7,6 C 14,5 km/h (3 Bft) 94,34 %
16.04.2017 00:08 9,4 C 91 % 1013,5 hPa 0,0 l/m 9,0 km/h (2 Bft) W-SW 249 0 min 0,000 mm 0,0 UV-I 0 W/m 8,0 C 7,6 C 12,9 km/h (3 Bft) 94,74 %
16.04.2017 00:10 9,4 C 91 % 1013,5 hPa 0,0 l/m 7,8 km/h (2 Bft) W-SW 246 0 min 0,000 mm 0,0 UV-I 0 W/m 8,0 C 8,4 C 11,3 km/h (2 Bft) 91,49 %
16.04.2017 00:12 9,4 C 92 % 1013,5 hPa 0,0 l/m 8,2 km/h (2 Bft) SW 221 0 min 0,000 mm 0,0 UV-I 0 W/m 8,2 C 8,1 C 12,9 km/h (3 Bft) 95,74 %
16.04.2017 00:14 9,4 C 92 % 1013,5 hPa 0,0 l/m 8,9 km/h (2 Bft) W-SW 250 0 min 0,000 mm 0,0 UV-I 0 W/m 8,2 C 7,6 C 14,5 km/h (3 Bft) 95,45 %
16.04.2017 00:16 9,3 C 92 % 1013,5 hPa 0,0 l/m 7,5 km/h (2 Bft) W 271 0 min 0,000 mm 0,0 UV-I 0 W/m 8,1 C 8,5 C 11,3 km/h (2 Bft) 92,45 %
16.04.2017 00:18 9,3 C 92 % 1013,6 hPa 0,0 l/m 10,1 km/h (2 Bft) W-SW 239 0 min 0,000 mm 0,0 UV-I 0 W/m 8,1 C 6,8 C 17,7 km/h (3 Bft) 100,00 %
16.04.2017 00:20 9,3 C 92 % 1013,6 hPa 0,0 l/m 10,6 km/h (2 Bft) W-SW 238 0 min 0,000 mm 0,0 UV-I 0 W/m 8,1 C 6,5 C 16,1 km/h (3 Bft) 94,59 %
16.04.2017 00:22 9,3 C 92 % 1013,6 hPa 0,0 l/m 8,9 km/h (2 Bft) W-SW 249 0 min 0,000 mm 0,0 UV-I 0 W/m 8,1 C 7,5 C 14,5 km/h (3 Bft) 96,15 %
16.04.2017 00:24 9,3 C 92 % 1013,7 hPa 0,0 l/m 9,2 km/h (2 Bft) W-SW 244 0 min 0,000 mm 0,0 UV-I 0 W/m 8,1 C 7,3 C 14,5 km/h (3 Bft) 96,00 %
16.04.2017 00:26 9,3 C 92 % 1013,7 hPa 0,0 l/m 8,8 km/h (2 Bft) W-SW 249 0 min 0,000 mm 0,0 UV-I 0 W/m 8,1 C 7,6 C 14,5 km/h (3 Bft) 95,56 %
16.04.2017 00:28 9,3 C 92 % 1013,8 hPa 0,0 l/m 9,3 km/h (2 Bft) W 263 0 min 0,000 mm 0,0 UV-I 0 W/m 8,1 C 7,3 C 12,9 km/h (3 Bft) 94,74 %
16.04.2017 00:30 9,3 C 92 % 1013,7 hPa 0,0 l/m 9,1 km/h (2 Bft) W 263 0 min 0,000 mm 0,0 UV-I 0 W/m 8,1 C 7,4 C 12,9 km/h (3 Bft) 96,61 %
16.04.2017 00:32 9,3 C 92 % 1013,7 hPa 0,0 l/m 8,5 km/h (2 Bft) S-SW 210 0 min 0,000 mm 0,0 UV-I 0 W/m 8,1 C 7,8 C 12,9 km/h (3 Bft) 97,56 %
16.04.2017 00:34 9,3 C 92 % 1013,8 hPa 0,0 l/m 11,0 km/h (2 Bft) W-SW 244 0 min 0,000 mm 0,0 UV-I 0 W/m 8,1 C 6,2 C 16,1 km/h (3 Bft) 94,00 %
16.04.2017 00:36 9,3 C 92 % 1013,8 hPa 0,0 l/m 12,5 km/h (3 Bft) SW 234 0 min 0,000 mm 0,0 UV-I 0 W/m 8,1 C 5,5 C 19,3 km/h (3 Bft) 97,56 %
16.04.2017 00:38 9,3 C 92 % 1013,9 hPa 0,0 l/m 11,1 km/h (2 Bft) W-SW 244 0 min 0,000 mm 0,0 UV-I 0 W/m 8,1 C 6,2 C 16,1 km/h (3 Bft) 90,57 %
16.04.2017 00:40 9,4 C 92 % 1013,9 hPa 0,0 l/m 10,7 km/h (2 Bft) SW 235 0 min 0,000 mm 0,0 UV-I 0 W/m 8,2 C 6,5 C 16,1 km/h (3 Bft) 96,00 %
16.04.2017 00:42 9,4 C 92 % 1013,9 hPa 0,0 l/m 11,9 km/h (2 Bft) SW 236 0 min 0,000 mm 0,0 UV-I 0 W/m 8,2 C 5,9 C 20,9 km/h (4 Bft) 97,37 %
16.04.2017 00:44 9,4 C 92 % 1013,9 hPa 0,0 l/m 11,0 km/h (2 Bft) W 270 0 min 0,000 mm 0,0 UV-I 0 W/m 8,2 C 6,4 C 16,1 km/h (3 Bft) 97,87 %
16.04.2017 00:46 9,4 C 92 % 1013,9 hPa 0,0 l/m 14,2 km/h (3 Bft) W 265 0 min 0,000 mm 0,0 UV-I 0 W/m 8,2 C 4,8 C 20,9 km/h (4 Bft) 100,00 %
16.04.2017 00:48 9,4 C 92 % 1013,9 hPa 0,0 l/m 11,9 km/h (2 Bft) W-SW 238 0 min 0,000 mm 0,0 UV-I 0 W/m 8,2 C 5,9 C 16,1 km/h (3 Bft) 100,00 %
16.04.2017 00:50 9,4 C 92 % 1013,9 hPa 0,0 l/m 11,4 km/h (2 Bft) W-SW 252 0 min 0,000 mm 0,0 UV-I 0 W/m 8,2 C 6,1 C 17,7 km/h (3 Bft) 100,00 %
16.04.2017 00:52 9,5 C 92 % 1013,9 hPa 0,0 l/m 12,9 km/h (3 Bft) SW 229 0 min 0,000 mm 0,0 UV-I 0 W/m 8,3 C 5,5 C 17,7 km/h (3 Bft) 97,56 %
16.04.2017 00:54 9,5 C 92 % 1013,9 hPa 0,0 l/m 12,5 km/h (3 Bft) W 259 0 min 0,000 mm 0,0 UV-I 0 W/m 8,3 C 5,7 C 19,3 km/h (3 Bft) 98,21 %
16.04.2017 00:56 9,5 C 92 % 1013,9 hPa 0,0 l/m 13,4 km/h (3 Bft) SW 220 0 min 0,000 mm 0,0 UV-I 0 W/m 8,3 C 5,2 C 22,5 km/h (4 Bft) 100,00 %
16.04.2017 00:58 9,5 C 92 % 1014,0 hPa 0,0 l/m 15,6 km/h (3 Bft) S-SW 213 0 min 0,000 mm 0,0 UV-I 0 W/m 8,3 C 4,3 C 22,5 km/h (4 Bft) 100,00 %
16.04.2017 01:00 9,5 C 92 % 1014,0 hPa 0,0 l/m 13,8 km/h (3 Bft) W 262 0 min 0,000 mm 0,0 UV-I 0 W/m 8,3 C 5,1 C 22,5 km/h (4 Bft) 100,00 %
16.04.2017 01:02 9,5 C 92 % 1013,9 hPa 0,0 l/m 14,1 km/h (3 Bft) W-SW 250 0 min 0,000 mm 0,0 UV-I 0 W/m 8,3 C 4,9 C 19,3 km/h (3 Bft) 97,44 %
16.04.2017 01:04 9,5 C 91 % 1013,9 hPa 0,0 l/m 14,4 km/h (3 Bft) SW 217 0 min 0,000 mm 0,0 UV-I 0 W/m 8,1 C 4,8 C 20,9 km/h (4 Bft) 100,00 %
16.04.2017 01:06 9,5 C 92 % 1013,9 hPa 0,0 l/m 13,8 km/h (3 Bft) W 264 0 min 0,000 mm 0,0 UV-I 0 W/m 8,3 C 5,1 C 17,7 km/h (3 Bft) 97,73 %
16.04.2017 01:08 9,5 C 91 % 1013,9 hPa 0,0 l/m 12,1 km/h (2 Bft) SW 220 0 min 0,000 mm 0,0 UV-I 0 W/m 8,1 C 5,9 C 20,9 km/h (4 Bft) 100,00 %
16.04.2017 01:10 9,5 C 91 % 1013,9 hPa 0,0 l/m 16,2 km/h (3 Bft) W 261 0 min 0,000 mm 0,0 UV-I 0 W/m 8,1 C 4,0 C 24,1 km/h (4 Bft) 100,00 %
16.04.2017 01:12 9,4 C 91 % 1014,0 hPa 0,0 l/m 13,6 km/h (3 Bft) SW 229 0 min 0,000 mm 0,0 UV-I 0 W/m 8,0 C 5,0 C 20,9 km/h (4 Bft) 97,87 %
16.04.2017 01:14 9,4 C 91 % 1014,0 hPa 0,0 l/m 10,9 km/h (2 Bft) W 259 0 min 0,000 mm 0,0 UV-I 0 W/m 8,0 C 6,4 C 19,3 km/h (3 Bft) 100,00 %
16.04.2017 01:16 9,4 C 91 % 1014,0 hPa 0,0 l/m 13,0 km/h (3 Bft) S 191 0 min 0,000 mm 0,0 UV-I 0 W/m 8,0 C 5,3 C 24,1 km/h (4 Bft) 100,00 %
16.04.2017 01:18 9,4 C 91 % 1014,1 hPa 0,0 l/m 11,7 km/h (2 Bft) W 277 0 min 0,000 mm 0,0 UV-I 0 W/m 8,0 C 6,0 C 20,9 km/h (4 Bft) 100,00 %
16.04.2017 01:20 9,4 C 91 % 1014,1 hPa 0,0 l/m 14,2 km/h (3 Bft) W-SW 250 0 min 0,000 mm 0,0 UV-I 0 W/m 8,0 C 4,8 C 20,9 km/h (4 Bft) 100,00 %
16.04.2017 01:22 9,4 C 91 % 1014,2 hPa 0,0 l/m 13,0 km/h (3 Bft) W-SW 248 0 min 0,000 mm 0,0 UV-I 0 W/m 8,0 C 5,3 C 19,3 km/h (3 Bft) 100,00 %
16.04.2017 01:24 9,3 C 91 % 1014,1 hPa 0,0 l/m 14,9 km/h (3 Bft) W-SW 253 0 min 0,000 mm 0,0 UV-I 0 W/m 7,9 C 4,3 C 22,5 km/h (4 Bft) 100,00 %
16.04.2017 01:26 9,3 C 91 % 1014,1 hPa 0,0 l/m 12,9 km/h (3 Bft) W-SW 253 0 min 0,000 mm 0,0 UV-I 0 W/m 7,9 C 5,3 C 22,5 km/h (4 Bft) 100,00 %
16.04.2017 01:28 9,3 C 91 % 1014,2 hPa 0,0 l/m 13,6 km/h (3 Bft) W-SW 247 0 min 0,000 mm 0,0 UV-I 0 W/m 7,9 C 4,9 C 19,3 km/h (3 Bft) 100,00 %
16.04.2017 01:30 9,3 C 91 % 1014,2 hPa 0,0 l/m 12,5 km/h (3 Bft) SW 233 0 min 0,000 mm 0,0 UV-I 0 W/m 7,9 C 5,5 C 19,3 km/h (3 Bft) 100,00 %
16.04.2017 01:32 9,3 C 91 % 1014,1 hPa 0,0 l/m 14,7 km/h (3 Bft) SW 231 0 min 0,000 mm 0,0 UV-I 0 W/m 7,9 C 4,4 C 20,9 km/h (4 Bft) 100,00 %
16.04.2017 01:34 9,3 C 91 % 1014,2 hPa 0,0 l/m 12,1 km/h (2 Bft) W-SW 246 0 min 0,000 mm 0,0 UV-I 0 W/m 7,9 C 5,7 C 17,7 km/h (3 Bft) 100,00 %
16.04.2017 01:36 9,3 C 91 % 1014,2 hPa 0,0 l/m 15,1 km/h (3 Bft) W-SW 257 0 min 0,000 mm 0,0 UV-I 0 W/m 7,9 C 4,2 C 20,9 km/h (4 Bft) 100,00 %
16.04.2017 01:38 9,3 C 91 % 1014,2 hPa 0,0 l/m 14,0 km/h (3 Bft) W-SW 242 0 min 0,000 mm 0,0 UV-I 0 W/m 7,9 C 4,7 C 20,9 km/h (4 Bft) 100,00 %
16.04.2017 01:40 9,3 C 91 % 1014,3 hPa 0,0 l/m 14,4 km/h (3 Bft) W-SW 238 0 min 0,000 mm 0,0 UV-I 0 W/m 7,9 C 4,6 C 19,3 km/h (3 Bft) 100,00 %
16.04.2017 01:42 9,3 C 91 % 1014,3 hPa 0,0 l/m 15,9 km/h (3 Bft) W-SW 257 0 min 0,000 mm 0,0 UV-I 0 W/m 7,9 C 3,9 C 22,5 km/h (4 Bft) 100,00 %
16.04.2017 01:44 9,2 C 91 % 1014,2 hPa 0,0 l/m 13,6 km/h (3 Bft) SW 224 0 min 0,000 mm 0,0 UV-I 0 W/m 7,8 C 4,8 C 20,9 km/h (4 Bft) 98,11 %
16.04.2017 01:46 9,3 C 91 % 1014,2 hPa 0,0 l/m 15,4 km/h (3 Bft) W-SW 237 0 min 0,000 mm 0,0 UV-I 0 W/m 7,9 C 4,1 C 24,1 km/h (4 Bft) 100,00 %
16.04.2017 01:48 9,2 C 90 % 1014,2 hPa 0,0 l/m 16,4 km/h (3 Bft) SW 230 0 min 0,000 mm 0,0 UV-I 0 W/m 7,6 C 3,6 C 25,7 km/h (4 Bft) 100,00 %
16.04.2017 01:50 9,2 C 90 % 1014,2 hPa 0,0 l/m 15,3 km/h (3 Bft) SW 236 0 min 0,000 mm 0,0 UV-I 0 W/m 7,6 C 4,0 C 22,5 km/h (4 Bft) 100,00 %
16.04.2017 01:52 9,2 C 90 % 1014,2 hPa 0,0 l/m 11,3 km/h (2 Bft) W-SW 238 0 min 0,000 mm 0,0 UV-I 0 W/m 7,6 C 6,0 C 16,1 km/h (3 Bft) 100,00 %
16.04.2017 01:54 9,2 C 90 % 1014,2 hPa 0,0 l/m 11,8 km/h (2 Bft) SW 228 0 min 0,000 mm 0,0 UV-I 0 W/m 7,6 C 5,7 C 22,5 km/h (4 Bft) 100,00 %
16.04.2017 01:56 9,3 C 90 % 1014,2 hPa 0,0 l/m 11,8 km/h (2 Bft) W-SW 243 0 min 0,000 mm 0,0 UV-I 0 W/m 7,7 C 5,8 C 16,1 km/h (3 Bft) 98,21 %
16.04.2017 01:58 9,2 C 90 % 1014,2 hPa 0,0 l/m 11,9 km/h (2 Bft) W 265 0 min 0,000 mm 0,0 UV-I 0 W/m 7,6 C 5,6 C 16,1 km/h (3 Bft) 100,00 %
16.04.2017 02:00 9,2 C 90 % 1014,2 hPa 0,0 l/m 14,7 km/h (3 Bft) W-SW 248 0 min 0,025 mm 0,0 UV-I 0 W/m 7,6 C 4,3 C 22,5 km/h (4 Bft) 100,00 %
16.04.2017 02:02 9,2 C 90 % 1014,2 hPa 0,0 l/m 13,0 km/h (3 Bft) W 265 0 min 0,000 mm 0,0 UV-I 0 W/m 7,6 C 5,1 C 19,3 km/h (3 Bft) 97,87 %
16.04.2017 02:04 9,2 C 90 % 1014,2 hPa 0,0 l/m 9,5 km/h (2 Bft) W 259 0 min 0,000 mm 0,0 UV-I 0 W/m 7,6 C 7,0 C 14,5 km/h (3 Bft) 97,56 %
16.04.2017 02:06 9,2 C 90 % 1014,2 hPa 0,0 l/m 9,9 km/h (2 Bft) W 263 0 min 0,000 mm 0,0 UV-I 0 W/m 7,6 C 6,8 C 17,7 km/h (3 Bft) 96,00 %
16.04.2017 02:08 9,2 C 90 % 1014,2 hPa 0,0 l/m 12,9 km/h (3 Bft) W-SW 258 0 min 0,000 mm 0,0 UV-I 0 W/m 7,6 C 5,1 C 20,9 km/h (4 Bft) 97,73 %
16.04.2017 02:10 9,2 C 90 % 1014,2 hPa 0,0 l/m 11,7 km/h (2 Bft) SW 226 0 min 0,000 mm 0,0 UV-I 0 W/m 7,6 C 5,8 C 16,1 km/h (3 Bft) 98,00 %
16.04.2017 02:12 9,2 C 90 % 1014,2 hPa 0,0 l/m 8,6 km/h (2 Bft) SW 235 0 min 0,000 mm 0,0 UV-I 0 W/m 7,6 C 7,6 C 12,9 km/h (3 Bft) 96,00 %
16.04.2017 02:14 9,2 C 91 % 1014,2 hPa 0,0 l/m 11,3 km/h (2 Bft) SW 236 0 min 0,000 mm 0,0 UV-I 0 W/m 7,8 C 6,0 C 20,9 km/h (4 Bft) 97,87 %
16.04.2017 02:16 9,2 C 91 % 1014,2 hPa 0,0 l/m 11,8 km/h (2 Bft) SW 234 0 min 0,000 mm 0,0 UV-I 0 W/m 7,8 C 5,7 C 17,7 km/h (3 Bft) 97,62 %
16.04.2017 02:18 9,2 C 90 % 1014,2 hPa 0,0 l/m 14,8 km/h (3 Bft) W-SW 249 0 min 0,000 mm 0,0 UV-I 0 W/m 7,6 C 4,3 C 20,9 km/h (4 Bft) 97,62 %
16.04.2017 02:20 9,2 C 90 % 1014,2 hPa 0,0 l/m 8,8 km/h (2 Bft) W-SW 251 0 min 0,000 mm 0,0 UV-I 0 W/m 7,6 C 7,5 C 16,1 km/h (3 Bft) 98,08 %
16.04.2017 02:22 9,2 C 90 % 1014,2 hPa 0,0 l/m 11,7 km/h (2 Bft) W 262 0 min 0,000 mm 0,0 UV-I 0 W/m 7,6 C 5,8 C 20,9 km/h (4 Bft) 98,00 %
16.04.2017 02:24 9,2 C 90 % 1014,2 hPa 0,0 l/m 10,6 km/h (2 Bft) SW 235 0 min 0,000 mm 0,0 UV-I 0 W/m 7,6 C 6,4 C 17,7 km/h (3 Bft) 97,44 %
16.04.2017 02:26 9,2 C 91 % 1014,2 hPa 0,0 l/m 11,5 km/h (2 Bft) W-SW 255 0 min 0,000 mm 0,0 UV-I 0 W/m 7,8 C 5,9 C 17,7 km/h (3 Bft) 96,00 %
16.04.2017 02:28 9,1 C 91 % 1014,2 hPa 0,0 l/m 9,6 km/h (2 Bft) W 260 0 min 0,000 mm 0,0 UV-I 0 W/m 7,7 C 6,8 C 14,5 km/h (3 Bft) 97,14 %
16.04.2017 02:30 9,1 C 91 % 1014,3 hPa 0,0 l/m 8,3 km/h (2 Bft) W 261 0 min 0,000 mm 0,0 UV-I 0 W/m 7,7 C 7,7 C 17,7 km/h (3 Bft) 96,43 %
16.04.2017 02:32 9,1 C 91 % 1014,3 hPa 0,0 l/m 13,1 km/h (3 Bft) W 267 0 min 0,000 mm 0,0 UV-I 0 W/m 7,7 C 4,9 C 19,3 km/h (3 Bft) 97,73 %
16.04.2017 02:34 9,1 C 91 % 1014,3 hPa 0,4 l/m 10,4 km/h (2 Bft) W 263 0 min 0,000 mm 0,0 UV-I 0 W/m 7,7 C 6,4 C 16,1 km/h (3 Bft) 96,23 %
16.04.2017 02:36 9,1 C 91 % 1014,2 hPa 0,2 l/m 8,7 km/h (2 Bft) W-SW 255 0 min 0,000 mm 0,0 UV-I 0 W/m 7,7 C 7,4 C 14,5 km/h (3 Bft) 97,73 %
16.04.2017 02:38 9,0 C 91 % 1014,2 hPa 0,2 l/m 11,3 km/h (2 Bft) SW 236 0 min 0,000 mm 0,0 UV-I 0 W/m 7,6 C 5,7 C 16,1 km/h (3 Bft) 98,00 %
16.04.2017 02:40 8,9 C 91 % 1014,2 hPa 0,0 l/m 15,7 km/h (3 Bft) W-NW 294 0 min 0,000 mm 0,0 UV-I 0 W/m 7,5 C 3,5 C 20,9 km/h (4 Bft) 100,00 %
16.04.2017 02:42 8,8 C 90 % 1014,2 hPa 0,0 l/m 16,2 km/h (3 Bft) W-SW 254 0 min 0,000 mm 0,0 UV-I 0 W/m 7,3 C 3,2 C 22,5 km/h (4 Bft) 100,00 %
16.04.2017 02:44 8,8 C 90 % 1014,2 hPa 0,2 l/m 12,4 km/h (3 Bft) W 262 0 min 0,000 mm 0,0 UV-I 0 W/m 7,3 C 4,9 C 19,3 km/h (3 Bft) 98,11 %
16.04.2017 02:46 8,7 C 90 % 1014,2 hPa 0,0 l/m 11,0 km/h (2 Bft) W 261 0 min 0,000 mm 0,0 UV-I 0 W/m 7,2 C 5,6 C 19,3 km/h (3 Bft) 100,00 %
16.04.2017 02:48 8,7 C 90 % 1014,2 hPa 0,2 l/m 14,1 km/h (3 Bft) SW 233 0 min 0,000 mm 0,0 UV-I 0 W/m 7,2 C 4,0 C 24,1 km/h (4 Bft) 100,00 %
16.04.2017 02:50 8,6 C 90 % 1014,3 hPa 0,0 l/m 12,6 km/h (3 Bft) W-SW 241 0 min 0,000 mm 0,0 UV-I 0 W/m 7,1 C 4,6 C 20,9 km/h (4 Bft) 98,11 %
16.04.2017 02:52 8,5 C 90 % 1014,3 hPa 0,0 l/m 13,6 km/h (3 Bft) W-SW 253 0 min 0,000 mm 0,0 UV-I 0 W/m 7,0 C 4,0 C 19,3 km/h (3 Bft) 100,00 %
16.04.2017 02:54 8,4 C 91 % 1014,3 hPa 0,4 l/m 14,8 km/h (3 Bft) W 269 0 min 0,000 mm 0,0 UV-I 0 W/m 7,0 C 3,3 C 19,3 km/h (3 Bft) 100,00 %
16.04.2017 02:56 8,3 C 90 % 1014,3 hPa 0,2 l/m 13,1 km/h (3 Bft) W-SW 255 0 min 0,000 mm 0,0 UV-I 0 W/m 6,8 C 4,0 C 19,3 km/h (3 Bft) 100,00 %
16.04.2017 02:58 8,2 C 91 % 1014,3 hPa 0,0 l/m 16,1 km/h (3 Bft) W 266 0 min 0,000 mm 0,0 UV-I 0 W/m 6,8 C 2,5 C 22,5 km/h (4 Bft) 100,00 %
16.04.2017 03:00 8,2 C 91 % 1014,3 hPa 0,2 l/m 17,0 km/h (3 Bft) W 261 0 min 0,026 mm 0,0 UV-I 0 W/m 6,8 C 2,1 C 25,7 km/h (4 Bft) 97,44 %
16.04.2017 03:02 8,1 C 91 % 1014,3 hPa 0,0 l/m 11,1 km/h (2 Bft) W 265 0 min 0,000 mm 0,0 UV-I 0 W/m 6,7 C 4,8 C 14,5 km/h (3 Bft) 97,73 %
16.04.2017 03:04 8,0 C 91 % 1014,3 hPa 0,2 l/m 7,2 km/h (2 Bft) W-SW 254 0 min 0,000 mm 0,0 UV-I 0 W/m 6,6 C 7,4 C 11,3 km/h (2 Bft) 100,00 %
16.04.2017 03:06 7,9 C 91 % 1014,3 hPa 0,2 l/m 9,8 km/h (2 Bft) W-SW 252 0 min 0,000 mm 0,0 UV-I 0 W/m 6,5 C 5,4 C 16,1 km/h (3 Bft) 98,00 %
16.04.2017 03:08 7,9 C 92 % 1014,2 hPa 0,0 l/m 6,1 km/h (2 Bft) W-NW 283 0 min 0,000 mm 0,0 UV-I 0 W/m 6,7 C 7,9 C 11,3 km/h (2 Bft) 100,00 %
16.04.2017 03:10 7,8 C 92 % 1014,1 hPa 0,0 l/m 8,4 km/h (2 Bft) W 265 0 min 0,000 mm 0,0 UV-I 0 W/m 6,6 C 6,2 C 14,5 km/h (3 Bft) 100,00 %
16.04.2017 03:12 7,8 C 92 % 1014,1 hPa 0,0 l/m 9,1 km/h (2 Bft) W 262 0 min 0,000 mm 0,0 UV-I 0 W/m 6,6 C 5,8 C 19,3 km/h (3 Bft) 100,00 %
16.04.2017 03:14 7,7 C 92 % 1014,1 hPa 0,0 l/m 7,0 km/h (2 Bft) W 263 0 min 0,000 mm 0,0 UV-I 0 W/m 6,5 C 7,2 C 11,3 km/h (2 Bft) 100,00 %
16.04.2017 03:16 7,7 C 92 % 1014,2 hPa 0,0 l/m 12,0 km/h (2 Bft) W-SW 247 0 min 0,000 mm 0,0 UV-I 0 W/m 6,5 C 3,9 C 17,7 km/h (3 Bft) 100,00 %
16.04.2017 03:18 7,6 C 92 % 1014,2 hPa 0,0 l/m 14,3 km/h (3 Bft) W 264 0 min 0,000 mm 0,0 UV-I 0 W/m 6,4 C 2,6 C 20,9 km/h (4 Bft) 100,00 %
16.04.2017 03:20 7,6 C 92 % 1014,2 hPa 0,0 l/m 8,3 km/h (2 Bft) W 267 0 min 0,000 mm 0,0 UV-I 0 W/m 6,4 C 6,1 C 14,5 km/h (3 Bft) 98,11 %
16.04.2017 03:22 7,6 C 92 % 1014,3 hPa 0,0 l/m 8,7 km/h (2 Bft) W-SW 250 0 min 0,000 mm 0,0 UV-I 0 W/m 6,4 C 5,8 C 22,5 km/h (4 Bft) 100,00 %
16.04.2017 03:24 7,5 C 92 % 1014,3 hPa 0,0 l/m 7,8 km/h (2 Bft) W-SW 253 0 min 0,000 mm 0,0 UV-I 0 W/m 6,3 C 6,4 C 14,5 km/h (3 Bft) 98,11 %
16.04.2017 03:26 7,5 C 92 % 1014,2 hPa 0,0 l/m 6,3 km/h (2 Bft) W 277 0 min 0,000 mm 0,0 UV-I 0 W/m 6,3 C 7,5 C 11,3 km/h (2 Bft) 100,00 %
16.04.2017 03:28 7,4 C 92 % 1014,2 hPa 0,0 l/m 5,7 km/h (1 Bft) W 277 0 min 0,000 mm 0,0 UV-I 0 W/m 6,2 C 7,4 C 11,3 km/h (2 Bft) 97,37 %
16.04.2017 03:30 7,4 C 92 % 1014,4 hPa 0,0 l/m 6,1 km/h (2 Bft) W-NW 293 0 min 0,000 mm 0,0 UV-I 0 W/m 6,2 C 7,4 C 14,5 km/h (3 Bft) 98,21 %
16.04.2017 03:32 7,4 C 92 % 1014,4 hPa 0,0 l/m 8,9 km/h (2 Bft) W-NW 285 0 min 0,000 mm 0,0 UV-I 0 W/m 6,2 C 5,5 C 17,7 km/h (3 Bft) 96,30 %
16.04.2017 03:34 7,3 C 92 % 1014,5 hPa 0,2 l/m 10,2 km/h (2 Bft) W-SW 256 0 min 0,000 mm 0,0 UV-I 0 W/m 6,1 C 4,5 C 16,1 km/h (3 Bft) 100,00 %
16.04.2017 03:36 7,3 C 92 % 1014,5 hPa 0,0 l/m 10,9 km/h (2 Bft) W-SW 246 0 min 0,000 mm 0,0 UV-I 0 W/m 6,1 C 4,0 C 22,5 km/h (4 Bft) 100,00 %
16.04.2017 03:38 7,3 C 92 % 1014,6 hPa 0,2 l/m 15,9 km/h (3 Bft) SW 230 0 min 0,000 mm 0,0 UV-I 0 W/m 6,1 C 1,5 C 30,6 km/h (5 Bft) 100,00 %
16.04.2017 03:40 7,2 C 92 % 1014,6 hPa 0,0 l/m 15,4 km/h (3 Bft) W 276 0 min 0,000 mm 0,0 UV-I 0 W/m 6,0 C 1,6 C 25,7 km/h (4 Bft) 97,62 %
16.04.2017 03:42 7,2 C 92 % 1014,7 hPa 0,2 l/m 16,6 km/h (3 Bft) W-SW 244 0 min 0,000 mm 0,0 UV-I 0 W/m 6,0 C 1,0 C 27,4 km/h (4 Bft) 98,11 %
16.04.2017 03:44 7,1 C 91 % 1014,7 hPa 0,2 l/m 17,5 km/h (3 Bft) W 278 0 min 0,000 mm 0,0 UV-I 0 W/m 5,7 C 0,5 C 24,1 km/h (4 Bft) 97,56 %
16.04.2017 03:46 7,1 C 91 % 1014,7 hPa 0,0 l/m 14,3 km/h (3 Bft) SW 225 0 min 0,000 mm 0,0 UV-I 0 W/m 5,7 C 2,0 C 20,9 km/h (4 Bft) 94,64 %
16.04.2017 03:48 7,1 C 91 % 1014,7 hPa 0,0 l/m 14,0 km/h (3 Bft) W 259 0 min 0,000 mm 0,0 UV-I 0 W/m 5,7 C 2,1 C 25,7 km/h (4 Bft) 100,00 %
16.04.2017 03:50 7,0 C 91 % 1014,7 hPa 0,2 l/m 11,8 km/h (2 Bft) W 275 0 min 0,000 mm 0,0 UV-I 0 W/m 5,6 C 3,2 C 25,7 km/h (4 Bft) 96,00 %
16.04.2017 03:52 6,9 C 91 % 1014,7 hPa 0,0 l/m 14,1 km/h (3 Bft) W 263 0 min 0,000 mm 0,0 UV-I 0 W/m 5,5 C 1,8 C 25,7 km/h (4 Bft) 97,87 %
16.04.2017 03:54 6,9 C 90 % 1014,7 hPa 0,2 l/m 11,9 km/h (2 Bft) W 273 0 min 0,000 mm 0,0 UV-I 0 W/m 5,4 C 3,0 C 20,9 km/h (4 Bft) 94,34 %
16.04.2017 03:56 6,8 C 90 % 1014,7 hPa 0,0 l/m 9,5 km/h (2 Bft) W 261 0 min 0,000 mm 0,0 UV-I 0 W/m 5,3 C 4,4 C 17,7 km/h (3 Bft) 94,74 %
16.04.2017 03:58 6,8 C 90 % 1014,7 hPa 0,0 l/m 10,9 km/h (2 Bft) W 277 0 min 0,000 mm 0,0 UV-I 0 W/m 5,3 C 3,5 C 17,7 km/h (3 Bft) 96,43 %
16.04.2017 04:00 6,8 C 90 % 1014,7 hPa 0,0 l/m 7,9 km/h (2 Bft) W 278 0 min 0,000 mm 0,0 UV-I 0 W/m 5,3 C 5,6 C 12,9 km/h (3 Bft) 100,00 %
16.04.2017 04:02 6,8 C 91 % 1014,7 hPa 0,0 l/m 9,8 km/h (2 Bft) W-NW 290 0 min 0,000 mm 0,0 UV-I 0 W/m 5,4 C 4,2 C 19,3 km/h (3 Bft) 100,00 %
16.04.2017 04:04 6,8 C 91 % 1014,8 hPa 0,0 l/m 9,5 km/h (2 Bft) W 275 0 min 0,000 mm 0,0 UV-I 0 W/m 5,4 C 4,4 C 17,7 km/h (3 Bft) 98,00 %
16.04.2017 04:06 6,8 C 91 % 1014,8 hPa 0,0 l/m 7,5 km/h (2 Bft) W 265 0 min 0,000 mm 0,0 UV-I 0 W/m 5,4 C 5,9 C 14,5 km/h (3 Bft) 97,92 %
16.04.2017 04:08 6,8 C 91 % 1014,8 hPa 0,0 l/m 13,7 km/h (3 Bft) W-NW 290 0 min 0,000 mm 0,0 UV-I 0 W/m 5,4 C 1,9 C 25,7 km/h (4 Bft) 93,62 %
16.04.2017 04:10 6,8 C 91 % 1014,8 hPa 0,0 l/m 10,3 km/h (2 Bft) W 259 0 min 0,000 mm 0,0 UV-I 0 W/m 5,4 C 3,9 C 20,9 km/h (4 Bft) 94,74 %
16.04.2017 04:12 6,8 C 92 % 1014,8 hPa 0,0 l/m 8,1 km/h (2 Bft) W 277 0 min 0,000 mm 0,0 UV-I 0 W/m 5,6 C 5,4 C 22,5 km/h (4 Bft) 94,64 %
16.04.2017 04:14 6,8 C 92 % 1014,8 hPa 0,0 l/m 9,7 km/h (2 Bft) W-NW 299 0 min 0,000 mm 0,0 UV-I 0 W/m 5,6 C 4,3 C 17,7 km/h (3 Bft) 92,68 %
16.04.2017 04:16 6,8 C 92 % 1014,8 hPa 0,0 l/m 6,3 km/h (2 Bft) W-SW 256 0 min 0,000 mm 0,0 UV-I 0 W/m 5,6 C 6,8 C 11,3 km/h (2 Bft) 96,23 %
16.04.2017 04:18 6,9 C 92 % 1014,9 hPa 0,0 l/m 5,5 km/h (1 Bft) W 279 0 min 0,000 mm 0,0 UV-I 0 W/m 5,7 C 6,9 C 14,5 km/h (3 Bft) 93,33 %
16.04.2017 04:20 6,8 C 92 % 1014,8 hPa 0,0 l/m 12,2 km/h (2 Bft) W 279 0 min 0,000 mm 0,0 UV-I 0 W/m 5,6 C 2,7 C 20,9 km/h (4 Bft) 96,23 %
16.04.2017 04:22 6,8 C 92 % 1014,8 hPa 0,0 l/m 10,5 km/h (2 Bft) W-SW 258 0 min 0,000 mm 0,0 UV-I 0 W/m 5,6 C 3,7 C 20,9 km/h (4 Bft) 94,00 %
16.04.2017 04:24 6,8 C 92 % 1014,8 hPa 0,0 l/m 10,4 km/h (2 Bft) W 281 0 min 0,000 mm 0,0 UV-I 0 W/m 5,6 C 3,8 C 19,3 km/h (3 Bft) 94,00 %
16.04.2017 04:26 6,8 C 92 % 1014,8 hPa 0,2 l/m 6,1 km/h (2 Bft) W 259 0 min 0,000 mm 0,0 UV-I 0 W/m 5,6 C 6,8 C 14,5 km/h (3 Bft) 93,18 %
16.04.2017 04:28 6,7 C 92 % 1014,8 hPa 0,0 l/m 10,5 km/h (2 Bft) W 274 0 min 0,000 mm 0,0 UV-I 0 W/m 5,5 C 3,6 C 19,3 km/h (3 Bft) 93,18 %
16.04.2017 04:30 6,7 C 92 % 1014,8 hPa 0,0 l/m 8,3 km/h (2 Bft) W 272 0 min 0,000 mm 0,0 UV-I 0 W/m 5,5 C 5,2 C 14,5 km/h (3 Bft) 95,45 %
16.04.2017 04:32 6,7 C 92 % 1014,9 hPa 0,0 l/m 5,7 km/h (1 Bft) W 273 0 min 0,000 mm 0,0 UV-I 0 W/m 5,5 C 6,7 C 12,9 km/h (3 Bft) 96,23 %
16.04.2017 04:34 6,7 C 92 % 1014,9 hPa 0,0 l/m 5,8 km/h (2 Bft) W 279 0 min 0,000 mm 0,0 UV-I 0 W/m 5,5 C 6,7 C 12,9 km/h (3 Bft) 92,45 %
16.04.2017 04:36 6,6 C 92 % 1014,9 hPa 0,0 l/m 6,5 km/h (2 Bft) W-SW 258 0 min 0,000 mm 0,0 UV-I 0 W/m 5,4 C 6,5 C 11,3 km/h (2 Bft) 96,15 %
16.04.2017 04:38 6,6 C 92 % 1015,0 hPa 0,0 l/m 10,1 km/h (2 Bft) W 261 0 min 0,000 mm 0,0 UV-I 0 W/m 5,4 C 3,8 C 17,7 km/h (3 Bft) 95,16 %
16.04.2017 04:40 6,6 C 92 % 1014,8 hPa 0,0 l/m 11,2 km/h (2 Bft) W 265 0 min 0,000 mm 0,0 UV-I 0 W/m 5,4 C 3,1 C 14,5 km/h (3 Bft) 95,74 %
16.04.2017 04:42 6,6 C 92 % 1014,8 hPa 0,0 l/m 7,9 km/h (2 Bft) W 281 0 min 0,000 mm 0,0 UV-I 0 W/m 5,4 C 5,4 C 12,9 km/h (3 Bft) 94,34 %
16.04.2017 04:44 6,6 C 92 % 1014,7 hPa 0,0 l/m 7,1 km/h (2 Bft) W 280 0 min 0,000 mm 0,0 UV-I 0 W/m 5,4 C 6,0 C 11,3 km/h (2 Bft) 97,56 %
16.04.2017 04:46 6,6 C 93 % 1014,8 hPa 0,0 l/m 10,0 km/h (2 Bft) W 272 0 min 0,000 mm 0,0 UV-I 0 W/m 5,6 C 3,8 C 16,1 km/h (3 Bft) 100,00 %
16.04.2017 04:48 6,6 C 93 % 1014,8 hPa 0,0 l/m 11,5 km/h (2 Bft) W-SW 243 0 min 0,000 mm 0,0 UV-I 0 W/m 5,6 C 2,9 C 16,1 km/h (3 Bft) 100,00 %
16.04.2017 04:50 6,6 C 93 % 1015,0 hPa 0,0 l/m 8,2 km/h (2 Bft) W-SW 242 0 min 0,000 mm 0,0 UV-I 0 W/m 5,6 C 5,1 C 14,5 km/h (3 Bft) 98,00 %
16.04.2017 04:52 6,6 C 93 % 1015,0 hPa 0,0 l/m 8,3 km/h (2 Bft) W-SW 244 0 min 0,000 mm 0,0 UV-I 0 W/m 5,6 C 5,1 C 14,5 km/h (3 Bft) 100,00 %
16.04.2017 04:54 6,6 C 93 % 1015,0 hPa 0,0 l/m 8,0 km/h (2 Bft) W 269 0 min 0,000 mm 0,0 UV-I 0 W/m 5,6 C 5,3 C 12,9 km/h (3 Bft) 95,24 %
16.04.2017 04:56 6,6 C 93 % 1014,9 hPa 0,0 l/m 6,6 km/h (2 Bft) W-SW 250 0 min 0,000 mm 0,0 UV-I 0 W/m 5,6 C 6,5 C 11,3 km/h (2 Bft) 100,00 %
16.04.2017 04:58 6,7 C 93 % 1014,9 hPa 0,0 l/m 8,8 km/h (2 Bft) S-SW 209 0 min 0,000 mm 0,0 UV-I 0 W/m 5,6 C 4,8 C 14,5 km/h (3 Bft) 100,00 %
16.04.2017 05:00 6,7 C 93 % 1014,9 hPa 0,0 l/m 10,8 km/h (2 Bft) W-SW 240 0 min 0,000 mm 0,0 UV-I 0 W/m 5,6 C 3,4 C 17,7 km/h (3 Bft) 98,00 %
16.04.2017 05:02 6,7 C 93 % 1014,9 hPa 0,0 l/m 9,2 km/h (2 Bft) SW 227 0 min 0,000 mm 0,0 UV-I 0 W/m 5,6 C 4,5 C 12,9 km/h (3 Bft) 100,00 %
16.04.2017 05:04 6,7 C 93 % 1014,9 hPa 0,0 l/m 12,3 km/h (3 Bft) SW 228 0 min 0,000 mm 0,0 UV-I 0 W/m 5,6 C 2,5 C 17,7 km/h (3 Bft) 97,14 %
16.04.2017 05:06 6,7 C 93 % 1014,9 hPa 0,0 l/m 11,9 km/h (2 Bft) SW 225 0 min 0,000 mm 0,0 UV-I 0 W/m 5,6 C 2,8 C 17,7 km/h (3 Bft) 100,00 %
16.04.2017 05:08 6,7 C 93 % 1014,9 hPa 0,0 l/m 8,7 km/h (2 Bft) W-SW 242 0 min 0,000 mm 0,0 UV-I 0 W/m 5,6 C 4,9 C 14,5 km/h (3 Bft) 100,00 %
16.04.2017 05:10 6,6 C 93 % 1014,9 hPa 0,0 l/m 8,5 km/h (2 Bft) W-SW 246 0 min 0,000 mm 0,0 UV-I 0 W/m 5,6 C 4,9 C 14,5 km/h (3 Bft) 98,00 %
16.04.2017 05:12 6,6 C 93 % 1015,0 hPa 0,0 l/m 9,6 km/h (2 Bft) SW 227 0 min 0,000 mm 0,0 UV-I 0 W/m 5,6 C 4,1 C 17,7 km/h (3 Bft) 100,00 %
16.04.2017 05:14 6,6 C 93 % 1014,9 hPa 0,0 l/m 9,1 km/h (2 Bft) W 268 0 min 0,000 mm 0,0 UV-I 0 W/m 5,6 C 4,5 C 17,7 km/h (3 Bft) 97,56 %
16.04.2017 05:16 6,6 C 93 % 1014,9 hPa 0,0 l/m 8,3 km/h (2 Bft) SW 219 0 min 0,000 mm 0,0 UV-I 0 W/m 5,6 C 5,1 C 12,9 km/h (3 Bft) 100,00 %
16.04.2017 05:18 6,6 C 92 % 1014,9 hPa 0,0 l/m 8,5 km/h (2 Bft) SW 229 0 min 0,000 mm 0,0 UV-I 0 W/m 5,4 C 4,9 C 14,5 km/h (3 Bft) 97,87 %
16.04.2017 05:20 6,6 C 92 % 1014,9 hPa 0,0 l/m 12,1 km/h (2 Bft) S-SW 207 0 min 0,000 mm 0,0 UV-I 0 W/m 5,4 C 2,5 C 17,7 km/h (3 Bft) 97,73 %
16.04.2017 05:22 6,5 C 92 % 1014,9 hPa 0,0 l/m 10,4 km/h (2 Bft) SW 221 0 min 0,000 mm 0,0 UV-I 0 W/m 5,3 C 3,5 C 17,7 km/h (3 Bft) 97,56 %
16.04.2017 05:24 6,5 C 92 % 1015,0 hPa 0,0 l/m 11,2 km/h (2 Bft) SW 232 0 min 0,000 mm 0,0 UV-I 0 W/m 5,3 C 3,0 C 17,7 km/h (3 Bft) 100,00 %
16.04.2017 05:26 6,5 C 92 % 1015,0 hPa 0,0 l/m 11,4 km/h (2 Bft) SW 216 0 min 0,000 mm 0,0 UV-I 0 W/m 5,3 C 2,8 C 19,3 km/h (3 Bft) 100,00 %
16.04.2017 05:28 6,5 C 92 % 1015,0 hPa 0,0 l/m 10,2 km/h (2 Bft) W-SW 254 0 min 0,000 mm 0,0 UV-I 0 W/m 5,3 C 3,6 C 14,5 km/h (3 Bft) 100,00 %
16.04.2017 05:30 6,5 C 92 % 1015,1 hPa 0,0 l/m 9,4 km/h (2 Bft) S 175 0 min 0,000 mm 0,0 UV-I 0 W/m 5,3 C 4,1 C 14,5 km/h (3 Bft) 100,00 %
16.04.2017 05:32 6,5 C 92 % 1015,1 hPa 0,0 l/m 9,9 km/h (2 Bft) SW 226 0 min 0,000 mm 0,0 UV-I 0 W/m 5,3 C 3,8 C 16,1 km/h (3 Bft) 100,00 %
16.04.2017 05:34 6,5 C 92 % 1015,2 hPa 0,0 l/m 8,9 km/h (2 Bft) S-SW 213 0 min 0,000 mm 0,0 UV-I 0 W/m 5,3 C 4,5 C 11,3 km/h (2 Bft) 100,00 %
16.04.2017 05:36 6,5 C 92 % 1015,1 hPa 0,0 l/m 9,3 km/h (2 Bft) SW 236 0 min 0,000 mm 0,0 UV-I 0 W/m 5,3 C 4,2 C 16,1 km/h (3 Bft) 100,00 %
16.04.2017 05:38 6,5 C 92 % 1015,1 hPa 0,0 l/m 14,6 km/h (3 Bft) SW 227 0 min 0,000 mm 0,0 UV-I 0 W/m 5,3 C 1,1 C 24,1 km/h (4 Bft) 100,00 %
16.04.2017 05:40 6,5 C 92 % 1015,1 hPa 0,0 l/m 11,1 km/h (2 Bft) SW 226 0 min 0,000 mm 0,0 UV-I 0 W/m 5,3 C 3,0 C 19,3 km/h (3 Bft) 100,00 %
16.04.2017 05:42 6,5 C 92 % 1015,1 hPa 0,0 l/m 10,2 km/h (2 Bft) SW 236 0 min 0,000 mm 0,0 UV-I 0 W/m 5,3 C 3,6 C 14,5 km/h (3 Bft) 100,00 %
16.04.2017 05:44 6,5 C 92 % 1015,1 hPa 0,0 l/m 11,5 km/h (2 Bft) SW 220 0 min 0,000 mm 0,0 UV-I 0 W/m 5,3 C 2,8 C 17,7 km/h (3 Bft) 100,00 %
16.04.2017 05:46 6,6 C 92 % 1015,1 hPa 0,0 l/m 12,3 km/h (3 Bft) W-SW 245 0 min 0,000 mm 0,0 UV-I 0 W/m 5,4 C 2,4 C 19,3 km/h (3 Bft) 98,00 %
16.04.2017 05:48 6,5 C 92 % 1015,1 hPa 0,0 l/m 13,0 km/h (3 Bft) W-SW 241 0 min 0,000 mm 0,0 UV-I 0 W/m 5,3 C 1,9 C 20,9 km/h (4 Bft) 100,00 %
16.04.2017 05:50 6,6 C 92 % 1015,1 hPa 0,0 l/m 10,6 km/h (2 Bft) W-SW 242 0 min 0,000 mm 0,0 UV-I 0 W/m 5,4 C 3,4 C 17,7 km/h (3 Bft) 100,00 %
16.04.2017 05:52 6,6 C 92 % 1015,1 hPa 0,0 l/m 11,8 km/h (2 Bft) SW 230 0 min 0,000 mm 0,0 UV-I 0 W/m 5,4 C 2,7 C 19,3 km/h (3 Bft) 100,00 %
16.04.2017 05:54 6,6 C 91 % 1015,1 hPa 0,0 l/m 10,7 km/h (2 Bft) SW 215 0 min 0,000 mm 0,0 UV-I 0 W/m 5,2 C 3,4 C 19,3 km/h (3 Bft) 100,00 %
16.04.2017 05:56 6,6 C 91 % 1015,2 hPa 0,0 l/m 15,1 km/h (3 Bft) SW 232 0 min 0,000 mm 0,0 UV-I 0 W/m 5,2 C 1,0 C 25,7 km/h (4 Bft) 100,00 %
16.04.2017 05:58 6,6 C 91 % 1015,2 hPa 0,0 l/m 13,4 km/h (3 Bft) W-SW 241 0 min 0,000 mm 0,0 UV-I 0 W/m 5,2 C 1,8 C 20,9 km/h (4 Bft) 100,00 %
16.04.2017 06:00 6,6 C 91 % 1015,2 hPa 0,0 l/m 12,9 km/h (3 Bft) SW 230 0 min 0,000 mm 0,0 UV-I 0 W/m 5,2 C 2,1 C 17,7 km/h (3 Bft) 98,11 %
16.04.2017 06:02 6,6 C 91 % 1015,2 hPa 0,0 l/m 14,2 km/h (3 Bft) S-SW 211 0 min 0,000 mm 0,0 UV-I 0 W/m 5,2 C 1,4 C 20,9 km/h (4 Bft) 100,00 %
16.04.2017 06:04 6,6 C 91 % 1015,2 hPa 0,0 l/m 10,6 km/h (2 Bft) W-SW 251 0 min 0,000 mm 0,0 UV-I 0 W/m 5,2 C 3,4 C 17,7 km/h (3 Bft) 100,00 %
16.04.2017 06:06 6,6 C 91 % 1015,2 hPa 0,0 l/m 12,8 km/h (3 Bft) W-SW 244 0 min 0,000 mm 0,0 UV-I 0 W/m 5,2 C 2,1 C 19,3 km/h (3 Bft) 100,00 %
16.04.2017 06:08 6,6 C 91 % 1015,2 hPa 0,0 l/m 12,9 km/h (3 Bft) SW 233 0 min 0,000 mm 0,0 UV-I 0 W/m 5,2 C 2,1 C 20,9 km/h (4 Bft) 100,00 %
16.04.2017 06:10 6,6 C 91 % 1015,2 hPa 0,0 l/m 13,0 km/h (3 Bft) W-SW 257 0 min 0,000 mm 0,0 UV-I 0 W/m 5,2 C 2,0 C 19,3 km/h (3 Bft) 100,00 %
16.04.2017 06:12 6,6 C 91 % 1015,2 hPa 0,0 l/m 15,2 km/h (3 Bft) W 259 0 min 0,000 mm 0,0 UV-I 0 W/m 5,2 C 0,9 C 24,1 km/h (4 Bft) 100,00 %
16.04.2017 06:14 6,7 C 91 % 1015,3 hPa 0,0 l/m 15,3 km/h (3 Bft) SW 219 0 min 0,000 mm 0,0 UV-I 0 W/m 5,3 C 1,0 C 22,5 km/h (4 Bft) 97,96 %
16.04.2017 06:16 6,7 C 91 % 1015,3 hPa 0,0 l/m 12,3 km/h (3 Bft) SW 232 0 min 0,000 mm 0,0 UV-I 0 W/m 5,3 C 2,5 C 22,5 km/h (4 Bft) 94,00 %
16.04.2017 06:18 6,7 C 91 % 1015,2 hPa 0,0 l/m 12,0 km/h (2 Bft) W 262 0 min 0,000 mm 0,0 UV-I 0 W/m 5,3 C 2,7 C 19,3 km/h (3 Bft) 97,92 %
16.04.2017 06:20 6,7 C 91 % 1015,2 hPa 0,0 l/m 12,4 km/h (3 Bft) SW 225 0 min 0,000 mm 0,0 UV-I 1 W/m 5,3 C 2,5 C 19,3 km/h (3 Bft) 93,33 %
16.04.2017 06:22 6,7 C 91 % 1015,2 hPa 0,0 l/m 16,7 km/h (3 Bft) SW 217 0 min 0,000 mm 0,0 UV-I 5 W/m 5,3 C 0,4 C 22,5 km/h (4 Bft) 97,73 %
16.04.2017 06:24 6,7 C 91 % 1015,3 hPa 0,0 l/m 12,6 km/h (3 Bft) S-SW 198 0 min 0,000 mm 0,0 UV-I 5 W/m 5,3 C 2,4 C 19,3 km/h (3 Bft) 98,11 %
16.04.2017 06:26 6,7 C 91 % 1015,3 hPa 0,0 l/m 15,1 km/h (3 Bft) W-SW 246 0 min 0,000 mm 0,0 UV-I 7 W/m 5,3 C 1,1 C 20,9 km/h (4 Bft) 97,56 %
16.04.2017 06:28 6,7 C 91 % 1015,4 hPa 0,0 l/m 14,8 km/h (3 Bft) W-SW 249 0 min 0,000 mm 0,0 UV-I 7 W/m 5,3 C 1,2 C 22,5 km/h (4 Bft) 97,37 %
16.04.2017 06:30 6,7 C 91 % 1015,4 hPa 0,0 l/m 10,7 km/h (2 Bft) SW 225 0 min 0,000 mm 0,0 UV-I 10 W/m 5,3 C 3,5 C 16,1 km/h (3 Bft) 96,23 %
16.04.2017 06:32 6,7 C 91 % 1015,3 hPa 0,0 l/m 18,6 km/h (3 Bft) SW 227 0 min 0,000 mm 0,0 UV-I 11 W/m 5,3 C -0,4 C 29,0 km/h (5 Bft) 98,00 %
16.04.2017 06:34 6,7 C 91 % 1015,3 hPa 0,2 l/m 14,7 km/h (3 Bft) SW 235 0 min 0,000 mm 0,0 UV-I 11 W/m 5,3 C 1,3 C 22,5 km/h (4 Bft) 97,73 %
16.04.2017 06:36 6,7 C 91 % 1015,3 hPa 0,0 l/m 14,2 km/h (3 Bft) SW 234 0 min 0,000 mm 0,0 UV-I 12 W/m 5,3 C 1,5 C 19,3 km/h (3 Bft) 98,21 %
16.04.2017 06:38 6,7 C 91 % 1015,4 hPa 0,0 l/m 16,2 km/h (3 Bft) W-SW 237 0 min 0,000 mm 0,0 UV-I 12 W/m 5,3 C 0,6 C 24,1 km/h (4 Bft) 97,73 %
16.04.2017 06:40 6,7 C 91 % 1015,4 hPa 0,0 l/m 14,5 km/h (3 Bft) W-SW 238 0 min 0,000 mm 0,0 UV-I 10 W/m 5,3 C 1,4 C 22,5 km/h (4 Bft) 97,37 %
16.04.2017 06:42 6,7 C 91 % 1015,6 hPa 0,0 l/m 18,1 km/h (3 Bft) W 259 0 min 0,000 mm 0,0 UV-I 9 W/m 5,3 C -0,2 C 25,7 km/h (4 Bft) 96,61 %
16.04.2017 06:44 6,7 C 91 % 1015,6 hPa 0,0 l/m 17,2 km/h (3 Bft) SW 225 0 min 0,000 mm 0,0 UV-I 9 W/m 5,3 C 0,1 C 24,1 km/h (4 Bft) 100,00 %
16.04.2017 06:46 6,7 C 91 % 1015,5 hPa 0,0 l/m 14,1 km/h (3 Bft) SW 229 0 min 0,000 mm 0,0 UV-I 7 W/m 5,3 C 1,6 C 22,5 km/h (4 Bft) 94,34 %
16.04.2017 06:48 6,7 C 91 % 1015,5 hPa 0,0 l/m 16,2 km/h (3 Bft) SW 231 0 min 0,000 mm 0,0 UV-I 7 W/m 5,3 C 0,6 C 24,1 km/h (4 Bft) 97,56 %
16.04.2017 06:50 6,7 C 91 % 1015,5 hPa 0,0 l/m 14,5 km/h (3 Bft) W-SW 258 0 min 0,000 mm 0,0 UV-I 9 W/m 5,3 C 1,4 C 19,3 km/h (3 Bft) 94,34 %
16.04.2017 06:52 6,7 C 91 % 1015,6 hPa 0,0 l/m 18,5 km/h (3 Bft) W 261 0 min 0,000 mm 0,0 UV-I 8 W/m 5,3 C -0,4 C 25,7 km/h (4 Bft) 97,73 %
16.04.2017 06:54 6,7 C 91 % 1015,6 hPa 0,0 l/m 15,8 km/h (3 Bft) W-SW 238 0 min 0,000 mm 0,0 UV-I 9 W/m 5,3 C 0,8 C 22,5 km/h (4 Bft) 97,62 %
16.04.2017 06:56 6,7 C 90 % 1015,6 hPa 0,0 l/m 17,6 km/h (3 Bft) SW 218 0 min 0,000 mm 0,0 UV-I 9 W/m 5,2 C -0,0 C 30,6 km/h (5 Bft) 97,73 %
16.04.2017 06:58 6,7 C 90 % 1015,7 hPa 0,0 l/m 18,7 km/h (3 Bft) W-SW 241 0 min 0,000 mm 0,0 UV-I 9 W/m 5,2 C -0,5 C 27,4 km/h (4 Bft) 100,00 %
16.04.2017 07:00 6,7 C 90 % 1015,7 hPa 0,0 l/m 13,8 km/h (3 Bft) SW 230 0 min 0,000 mm 0,0 UV-I 11 W/m 5,2 C 1,7 C 19,3 km/h (3 Bft) 100,00 %
16.04.2017 07:02 6,7 C 90 % 1015,7 hPa 0,0 l/m 15,4 km/h (3 Bft) W-SW 240 0 min 0,025 mm 0,0 UV-I 12 W/m 5,2 C 0,9 C 20,9 km/h (4 Bft) 100,00 %
16.04.2017 07:04 6,7 C 90 % 1015,7 hPa 0,0 l/m 18,2 km/h (3 Bft) SW 223 0 min 0,000 mm 0,0 UV-I 14 W/m 5,2 C -0,3 C 30,6 km/h (5 Bft) 100,00 %
16.04.2017 07:06 6,7 C 90 % 1015,8 hPa 0,0 l/m 16,6 km/h (3 Bft) SW 215 0 min 0,000 mm 0,0 UV-I 16 W/m 5,2 C 0,4 C 24,1 km/h (4 Bft) 100,00 %
16.04.2017 07:08 6,7 C 90 % 1015,8 hPa 0,0 l/m 17,6 km/h (3 Bft) S-SW 202 0 min 0,000 mm 0,0 UV-I 19 W/m 5,2 C -0,0 C 22,5 km/h (4 Bft) 100,00 %
16.04.2017 07:10 6,7 C 90 % 1015,8 hPa 0,0 l/m 15,2 km/h (3 Bft) W-SW 255 0 min 0,000 mm 0,0 UV-I 22 W/m 5,2 C 1,0 C 22,5 km/h (4 Bft) 100,00 %
16.04.2017 07:12 6,7 C 90 % 1015,7 hPa 0,0 l/m 12,3 km/h (3 Bft) W-SW 257 0 min 0,000 mm 0,0 UV-I 26 W/m 5,2 C 2,5 C 16,1 km/h (3 Bft) 98,46 %
16.04.2017 07:14 6,7 C 90 % 1015,8 hPa 0,0 l/m 14,0 km/h (3 Bft) SW 217 0 min 0,000 mm 0,0 UV-I 28 W/m 5,2 C 1,6 C 24,1 km/h (4 Bft) 100,00 %
16.04.2017 07:16 6,7 C 90 % 1015,8 hPa 0,0 l/m 16,6 km/h (3 Bft) SW 225 0 min 0,000 mm 0,0 UV-I 35 W/m 5,2 C 0,4 C 24,1 km/h (4 Bft) 100,00 %
16.04.2017 07:18 6,7 C 89 % 1015,8 hPa 0,0 l/m 14,2 km/h (3 Bft) W-SW 243 0 min 0,000 mm 0,0 UV-I 38 W/m 5,0 C 1,5 C 20,9 km/h (4 Bft) 98,11 %
16.04.2017 07:20 6,7 C 89 % 1015,8 hPa 0,0 l/m 13,2 km/h (3 Bft) SW 226 0 min 0,000 mm 0,0 UV-I 36 W/m 5,0 C 2,0 C 24,1 km/h (4 Bft) 97,37 %
16.04.2017 07:22 6,8 C 89 % 1015,8 hPa 0,0 l/m 14,8 km/h (3 Bft) SW 222 0 min 0,000 mm 0,0 UV-I 40 W/m 5,1 C 1,4 C 20,9 km/h (4 Bft) 98,21 %
16.04.2017 07:24 6,7 C 89 % 1015,9 hPa 0,0 l/m 15,2 km/h (3 Bft) W-SW 257 0 min 0,000 mm 0,0 UV-I 44 W/m 5,0 C 1,0 C 20,9 km/h (4 Bft) 100,00 %
16.04.2017 07:26 6,7 C 88 % 1015,9 hPa 0,0 l/m 17,8 km/h (3 Bft) S-SW 205 0 min 0,000 mm 0,0 UV-I 41 W/m 4,9 C -0,1 C 30,6 km/h (5 Bft) 95,45 %
16.04.2017 07:28 6,8 C 88 % 1016,0 hPa 0,0 l/m 14,8 km/h (3 Bft) W 261 0 min 0,000 mm 0,0 UV-I 40 W/m 5,0 C 1,4 C 24,1 km/h (4 Bft) 100,00 %
16.04.2017 07:30 6,8 C 88 % 1016,0 hPa 0,0 l/m 13,5 km/h (3 Bft) W-SW 252 0 min 0,000 mm 0,0 UV-I 42 W/m 5,0 C 2,0 C 22,5 km/h (4 Bft) 100,00 %
16.04.2017 07:32 6,8 C 88 % 1016,0 hPa 0,0 l/m 12,4 km/h (3 Bft) SW 232 0 min 0,000 mm 0,0 UV-I 42 W/m 5,0 C 2,6 C 19,3 km/h (3 Bft) 100,00 %
16.04.2017 07:34 6,7 C 88 % 1016,1 hPa 0,0 l/m 16,4 km/h (3 Bft) SW 223 0 min 0,000 mm 0,0 UV-I 40 W/m 4,9 C 0,5 C 25,7 km/h (4 Bft) 98,11 %
16.04.2017 07:36 6,7 C 87 % 1016,1 hPa 0,0 l/m 16,6 km/h (3 Bft) W 269 0 min 0,000 mm 0,0 UV-I 40 W/m 4,7 C 0,4 C 24,1 km/h (4 Bft) 97,44 %
16.04.2017 07:38 6,7 C 87 % 1016,1 hPa 0,0 l/m 14,7 km/h (3 Bft) W 261 0 min 0,000 mm 0,0 UV-I 40 W/m 4,7 C 1,3 C 22,5 km/h (4 Bft) 93,75 %
16.04.2017 07:40 6,7 C 87 % 1016,1 hPa 0,0 l/m 14,6 km/h (3 Bft) SW 232 0 min 0,000 mm 0,0 UV-I 42 W/m 4,7 C 1,3 C 22,5 km/h (4 Bft) 98,59 %
16.04.2017 07:42 6,7 C 87 % 1016,2 hPa 0,0 l/m 15,2 km/h (3 Bft) W-SW 238 0 min 0,000 mm 0,0 UV-I 55 W/m 4,7 C 1,0 C 24,1 km/h (4 Bft) 97,56 %
16.04.2017 07:44 6,7 C 86 % 1016,1 hPa 0,0 l/m 13,4 km/h (3 Bft) SW 220 0 min 0,000 mm 0,0 UV-I 55 W/m 4,5 C 1,9 C 17,7 km/h (3 Bft) 97,73 %
16.04.2017 07:46 6,7 C 87 % 1016,2 hPa 0,0 l/m 15,2 km/h (3 Bft) W-SW 244 0 min 0,000 mm 0,0 UV-I 46 W/m 4,7 C 1,0 C 20,9 km/h (4 Bft) 96,00 %
16.04.2017 07:48 6,7 C 86 % 1016,2 hPa 0,0 l/m 16,6 km/h (3 Bft) SW 236 0 min 0,000 mm 0,0 UV-I 42 W/m 4,5 C 0,4 C 22,5 km/h (4 Bft) 100,00 %
16.04.2017 07:50 6,7 C 86 % 1016,1 hPa 0,0 l/m 13,6 km/h (3 Bft) W-SW 252 0 min 0,000 mm 0,0 UV-I 44 W/m 4,5 C 1,8 C 24,1 km/h (4 Bft) 96,61 %
16.04.2017 07:52 6,7 C 87 % 1016,2 hPa 0,0 l/m 12,8 km/h (3 Bft) SW 225 0 min 0,000 mm 0,0 UV-I 49 W/m 4,7 C 2,3 C 19,3 km/h (3 Bft) 96,00 %
16.04.2017 07:54 6,7 C 87 % 1016,2 hPa 0,0 l/m 12,4 km/h (3 Bft) W-SW 254 0 min 0,000 mm 0,0 UV-I 65 W/m 4,7 C 2,5 C 17,7 km/h (3 Bft) 95,12 %
16.04.2017 07:56 6,7 C 87 % 1016,2 hPa 0,0 l/m 14,8 km/h (3 Bft) SW 233 0 min 0,000 mm 0,0 UV-I 81 W/m 4,7 C 1,2 C 22,5 km/h (4 Bft) 98,00 %
16.04.2017 07:58 6,7 C 86 % 1016,2 hPa 0,0 l/m 16,2 km/h (3 Bft) SW 232 0 min 0,000 mm 0,0 UV-I 86 W/m 4,5 C 0,6 C 20,9 km/h (4 Bft) 98,00 %
16.04.2017 08:00 6,7 C 86 % 1016,2 hPa 0,0 l/m 17,2 km/h (3 Bft) SW 233 0 min 0,026 mm 0,0 UV-I 100 W/m 4,5 C 0,1 C 24,1 km/h (4 Bft) 97,37 %
16.04.2017 08:02 6,7 C 86 % 1016,2 hPa 0,0 l/m 14,9 km/h (3 Bft) S-SW 212 0 min 0,000 mm 0,0 UV-I 124 W/m 4,5 C 1,2 C 19,3 km/h (3 Bft) 96,00 %
16.04.2017 08:04 6,7 C 86 % 1016,2 hPa 0,0 l/m 14,5 km/h (3 Bft) SW 221 0 min 0,000 mm 0,0 UV-I 144 W/m 4,5 C 1,4 C 19,3 km/h (3 Bft) 95,45 %
16.04.2017 08:06 6,8 C 86 % 1016,2 hPa 0,0 l/m 14,9 km/h (3 Bft) SW 220 0 min 0,000 mm 0,0 UV-I 154 W/m 4,6 C 1,3 C 20,9 km/h (4 Bft) 94,00 %
16.04.2017 08:08 6,8 C 86 % 1016,2 hPa 0,0 l/m 15,7 km/h (3 Bft) W-SW 243 0 min 0,000 mm 0,0 UV-I 160 W/m 4,6 C 0,9 C 24,1 km/h (4 Bft) 97,73 %
16.04.2017 08:10 6,8 C 86 % 1016,3 hPa 0,0 l/m 16,2 km/h (3 Bft) W-SW 240 0 min 0,000 mm 0,0 UV-I 158 W/m 4,6 C 0,7 C 25,7 km/h (4 Bft) 96,23 %
16.04.2017 08:12 6,8 C 86 % 1016,2 hPa 0,0 l/m 17,3 km/h (3 Bft) W-SW 257 0 min 0,000 mm 0,0 UV-I 155 W/m 4,6 C 0,2 C 27,4 km/h (4 Bft) 95,74 %
16.04.2017 08:14 6,7 C 86 % 1016,2 hPa 0,0 l/m 20,3 km/h (4 Bft) W-SW 251 0 min 0,000 mm 0,0 UV-I 155 W/m 4,5 C -1,1 C 29,0 km/h (5 Bft) 97,87 %
16.04.2017 08:16 6,6 C 86 % 1016,3 hPa 0,0 l/m 20,6 km/h (4 Bft) SW 232 0 min 0,000 mm 0,0 UV-I 162 W/m 4,4 C -1,3 C 30,6 km/h (5 Bft) 97,62 %
16.04.2017 08:18 6,6 C 86 % 1016,3 hPa 0,0 l/m 16,4 km/h (3 Bft) SW 231 0 min 0,000 mm 0,0 UV-I 163 W/m 4,4 C 0,4 C 27,4 km/h (4 Bft) 96,55 %
16.04.2017 08:20 6,6 C 87 % 1016,3 hPa 0,0 l/m 16,0 km/h (3 Bft) SW 222 0 min 0,000 mm 0,0 UV-I 156 W/m 4,6 C 0,5 C 24,1 km/h (4 Bft) 97,18 %
16.04.2017 08:22 6,6 C 87 % 1016,3 hPa 0,0 l/m 16,6 km/h (3 Bft) W-SW 243 0 min 0,000 mm 0,0 UV-I 168 W/m 4,6 C 0,3 C 25,7 km/h (4 Bft) 95,12 %
16.04.2017 08:24 6,5 C 87 % 1016,4 hPa 0,0 l/m 15,8 km/h (3 Bft) S-SW 207 0 min 0,000 mm 0,0 UV-I 165 W/m 4,5 C 0,5 C 24,1 km/h (4 Bft) 93,62 %
16.04.2017 08:26 6,6 C 87 % 1016,4 hPa 0,0 l/m 15,1 km/h (3 Bft) S-SW 208 0 min 0,000 mm 0,0 UV-I 158 W/m 4,6 C 1,0 C 22,5 km/h (4 Bft) 98,00 %
16.04.2017 08:28 6,6 C 87 % 1016,5 hPa 0,0 l/m 17,8 km/h (3 Bft) W-SW 252 0 min 0,000 mm 0,0 UV-I 173 W/m 4,6 C -0,2 C 27,4 km/h (4 Bft) 95,12 %
16.04.2017 08:30 6,6 C 87 % 1016,5 hPa 0,0 l/m 15,0 km/h (3 Bft) SW 222 0 min 0,000 mm 0,0 UV-I 178 W/m 4,6 C 1,0 C 24,1 km/h (4 Bft) 92,00 %
16.04.2017 08:32 6,6 C 87 % 1016,5 hPa 0,0 l/m 17,7 km/h (3 Bft) SW 227 0 min 0,000 mm 0,2 UV-I 178 W/m 4,6 C -0,2 C 25,7 km/h (4 Bft) 95,45 %
16.04.2017 08:34 6,7 C 87 % 1016,5 hPa 0,0 l/m 19,1 km/h (3 Bft) W-SW 238 0 min 0,000 mm 0,5 UV-I 181 W/m 4,7 C -0,6 C 29,0 km/h (5 Bft) 95,12 %
16.04.2017 08:36 6,7 C 87 % 1016,6 hPa 0,0 l/m 16,2 km/h (3 Bft) SW 229 0 min 0,000 mm 0,5 UV-I 188 W/m 4,7 C 0,6 C 27,4 km/h (4 Bft) 94,34 %
16.04.2017 08:38 6,7 C 87 % 1016,6 hPa 0,0 l/m 18,7 km/h (3 Bft) W-SW 245 0 min 0,000 mm 0,5 UV-I 199 W/m 4,7 C -0,5 C 22,5 km/h (4 Bft) 96,43 %
16.04.2017 08:40 6,7 C 87 % 1016,6 hPa 0,0 l/m 19,6 km/h (3 Bft) W-SW 240 0 min 0,000 mm 0,0 UV-I 172 W/m 4,7 C -0,8 C 25,7 km/h (4 Bft) 94,74 %
16.04.2017 08:42 6,7 C 87 % 1016,6 hPa 0,0 l/m 11,9 km/h (2 Bft) W-SW 240 0 min 0,000 mm 0,0 UV-I 150 W/m 4,7 C 2,8 C 20,9 km/h (4 Bft) 96,23 %
16.04.2017 08:44 6,7 C 87 % 1016,6 hPa 0,0 l/m 17,5 km/h (3 Bft) SW 225 0 min 0,000 mm 0,0 UV-I 130 W/m 4,7 C 0,0 C 25,7 km/h (4 Bft) 92,59 %
16.04.2017 08:46 6,8 C 87 % 1016,6 hPa 0,0 l/m 13,8 km/h (3 Bft) SW 227 0 min 0,000 mm 0,0 UV-I 113 W/m 4,8 C 1,9 C 29,0 km/h (5 Bft) 96,72 %
16.04.2017 08:48 6,7 C 87 % 1016,6 hPa 0,0 l/m 17,1 km/h (3 Bft) W-SW 239 0 min 0,000 mm 0,0 UV-I 103 W/m 4,7 C 0,2 C 24,1 km/h (4 Bft) 92,45 %
16.04.2017 08:50 6,7 C 86 % 1016,6 hPa 0,0 l/m 13,8 km/h (3 Bft) W-SW 248 0 min 0,000 mm 0,0 UV-I 104 W/m 4,5 C 1,7 C 20,9 km/h (4 Bft) 95,45 %
16.04.2017 08:52 6,7 C 87 % 1016,7 hPa 0,0 l/m 14,2 km/h (3 Bft) W 264 0 min 0,000 mm 0,0 UV-I 107 W/m 4,7 C 1,5 C 20,9 km/h (4 Bft) 95,24 %
16.04.2017 08:54 6,7 C 87 % 1016,7 hPa 0,0 l/m 14,0 km/h (3 Bft) SW 216 0 min 0,000 mm 0,0 UV-I 105 W/m 4,7 C 1,6 C 19,3 km/h (3 Bft) 100,00 %
16.04.2017 08:56 6,7 C 87 % 1016,7 hPa 0,0 l/m 11,8 km/h (2 Bft) W-SW 252 0 min 0,000 mm 0,0 UV-I 111 W/m 4,7 C 2,8 C 17,7 km/h (3 Bft) 91,67 %
16.04.2017 08:58 6,7 C 87 % 1016,7 hPa 0,0 l/m 15,4 km/h (3 Bft) SW 236 0 min 0,000 mm 0,0 UV-I 124 W/m 4,7 C 0,9 C 24,1 km/h (4 Bft) 98,46 %
16.04.2017 09:00 6,7 C 87 % 1016,7 hPa 0,0 l/m 16,1 km/h (3 Bft) W 269 0 min 0,076 mm 0,0 UV-I 121 W/m 4,7 C 0,6 C 24,1 km/h (4 Bft) 100,00 %
16.04.2017 09:02 6,7 C 87 % 1016,8 hPa 0,0 l/m 17,1 km/h (3 Bft) W-SW 254 0 min 0,000 mm 0,0 UV-I 108 W/m 4,7 C 0,2 C 24,1 km/h (4 Bft) 100,00 %
16.04.2017 09:04 6,7 C 87 % 1016,8 hPa 0,0 l/m 14,6 km/h (3 Bft) W-SW 241 0 min 0,000 mm 0,0 UV-I 86 W/m 4,7 C 1,3 C 22,5 km/h (4 Bft) 98,21 %
16.04.2017 09:06 6,7 C 87 % 1016,8 hPa 0,0 l/m 15,0 km/h (3 Bft) W 259 0 min 0,000 mm 0,0 UV-I 75 W/m 4,7 C 1,1 C 19,3 km/h (3 Bft) 100,00 %
16.04.2017 09:08 6,6 C 87 % 1016,8 hPa 0,0 l/m 13,8 km/h (3 Bft) W-SW 238 0 min 0,000 mm 0,0 UV-I 79 W/m 4,6 C 1,6 C 17,7 km/h (3 Bft) 100,00 %
16.04.2017 09:10 6,6 C 87 % 1016,8 hPa 0,0 l/m 10,2 km/h (2 Bft) W-SW 256 0 min 0,000 mm 0,0 UV-I 88 W/m 4,6 C 3,7 C 14,5 km/h (3 Bft) 100,00 %
16.04.2017 09:12 6,7 C 88 % 1016,8 hPa 0,0 l/m 11,6 km/h (2 Bft) W-SW 244 0 min 0,000 mm 0,0 UV-I 95 W/m 4,9 C 2,9 C 16,1 km/h (3 Bft) 100,00 %
16.04.2017 09:14 6,6 C 87 % 1016,7 hPa 0,0 l/m 12,6 km/h (3 Bft) W-SW 256 0 min 0,000 mm 0,0 UV-I 94 W/m 4,6 C 2,3 C 17,7 km/h (3 Bft) 100,00 %
16.04.2017 09:16 6,7 C 88 % 1016,8 hPa 0,0 l/m 10,8 km/h (2 Bft) SW 235 0 min 0,000 mm 0,0 UV-I 92 W/m 4,9 C 3,4 C 16,1 km/h (3 Bft) 100,00 %
16.04.2017 09:18 6,7 C 88 % 1016,8 hPa 0,0 l/m 13,2 km/h (3 Bft) W 263 0 min 0,000 mm 0,0 UV-I 84 W/m 4,9 C 2,0 C 19,3 km/h (3 Bft) 100,00 %
16.04.2017 09:20 6,7 C 87 % 1016,8 hPa 0,0 l/m 12,4 km/h (3 Bft) W 261 0 min 0,000 mm 0,0 UV-I 79 W/m 4,7 C 2,5 C 17,7 km/h (3 Bft) 100,00 %
16.04.2017 09:22 6,7 C 87 % 1016,8 hPa 0,0 l/m 14,0 km/h (3 Bft) W-SW 242 0 min 0,000 mm 0,0 UV-I 71 W/m 4,7 C 1,6 C 22,5 km/h (4 Bft) 100,00 %
16.04.2017 09:24 6,7 C 87 % 1016,8 hPa 0,0 l/m 15,5 km/h (3 Bft) W 261 0 min 0,000 mm 0,0 UV-I 66 W/m 4,7 C 0,9 C 20,9 km/h (4 Bft) 100,00 %
16.04.2017 09:26 6,7 C 87 % 1016,7 hPa 0,0 l/m 10,0 km/h (2 Bft) W-SW 248 0 min 0,000 mm 0,0 UV-I 72 W/m 4,7 C 4,0 C 16,1 km/h (3 Bft) 100,00 %
16.04.2017 09:28 6,7 C 87 % 1016,7 hPa 0,0 l/m 10,3 km/h (2 Bft) W-SW 246 0 min 0,000 mm 0,0 UV-I 92 W/m 4,7 C 3,8 C 17,7 km/h (3 Bft) 97,87 %
16.04.2017 09:30 6,7 C 87 % 1016,7 hPa 0,0 l/m 11,7 km/h (2 Bft) SW 225 0 min 0,000 mm 0,0 UV-I 85 W/m 4,7 C 2,9 C 17,7 km/h (3 Bft) 98,00 %
16.04.2017 09:32 6,7 C 87 % 1016,7 hPa 0,0 l/m 12,4 km/h (3 Bft) W-SW 245 0 min 0,000 mm 0,0 UV-I 92 W/m 4,7 C 2,5 C 16,1 km/h (3 Bft) 100,00 %
16.04.2017 09:34 6,7 C 87 % 1016,8 hPa 0,0 l/m 11,2 km/h (2 Bft) SW 232 0 min 0,000 mm 0,0 UV-I 94 W/m 4,7 C 3,2 C 17,7 km/h (3 Bft) 98,18 %
16.04.2017 09:36 6,7 C 87 % 1016,7 hPa 0,0 l/m 14,3 km/h (3 Bft) W-SW 243 0 min 0,000 mm 0,0 UV-I 93 W/m 4,7 C 1,5 C 19,3 km/h (3 Bft) 100,00 %
16.04.2017 09:38 6,7 C 87 % 1016,8 hPa 0,0 l/m 8,6 km/h (2 Bft) W-SW 239 0 min 0,000 mm 0,0 UV-I 115 W/m 4,7 C 4,9 C 12,9 km/h (3 Bft) 100,00 %
16.04.2017 09:40 6,7 C 87 % 1016,8 hPa 0,0 l/m 8,5 km/h (2 Bft) SW 236 0 min 0,000 mm 0,0 UV-I 113 W/m 4,7 C 5,0 C 12,9 km/h (3 Bft) 97,56 %
16.04.2017 09:42 6,7 C 88 % 1016,8 hPa 0,0 l/m 9,9 km/h (2 Bft) W-SW 242 0 min 0,000 mm 0,5 UV-I 142 W/m 4,9 C 4,0 C 17,7 km/h (3 Bft) 97,73 %
16.04.2017 09:44 6,8 C 88 % 1016,8 hPa 0,0 l/m 9,7 km/h (2 Bft) SW 223 0 min 0,000 mm 0,5 UV-I 147 W/m 5,0 C 4,3 C 16,1 km/h (3 Bft) 100,00 %
16.04.2017 09:46 6,8 C 88 % 1016,9 hPa 0,0 l/m 10,0 km/h (2 Bft) SW 219 0 min 0,000 mm 0,5 UV-I 132 W/m 5,0 C 4,1 C 17,7 km/h (3 Bft) 100,00 %
16.04.2017 09:48 6,8 C 87 % 1016,8 hPa 0,0 l/m 10,9 km/h (2 Bft) W-SW 238 0 min 0,000 mm 0,1 UV-I 119 W/m 4,8 C 3,5 C 19,3 km/h (3 Bft) 100,00 %
16.04.2017 09:50 6,8 C 87 % 1016,8 hPa 0,0 l/m 8,8 km/h (2 Bft) S-SW 213 0 min 0,000 mm 0,0 UV-I 110 W/m 4,8 C 4,9 C 12,9 km/h (3 Bft) 100,00 %
16.04.2017 09:52 6,8 C 87 % 1016,8 hPa 0,0 l/m 12,5 km/h (3 Bft) W 274 0 min 0,000 mm 0,0 UV-I 110 W/m 4,8 C 2,5 C 20,9 km/h (4 Bft) 100,00 %
16.04.2017 09:54 6,8 C 87 % 1016,8 hPa 0,0 l/m 9,7 km/h (2 Bft) SW 227 0 min 0,000 mm 0,4 UV-I 128 W/m 4,8 C 4,3 C 14,5 km/h (3 Bft) 100,00 %
16.04.2017 09:56 6,8 C 87 % 1016,8 hPa 0,0 l/m 11,7 km/h (2 Bft) W-NW 288 0 min 0,000 mm 0,6 UV-I 166 W/m 4,8 C 3,0 C 17,7 km/h (3 Bft) 100,00 %
16.04.2017 09:58 6,9 C 87 % 1016,8 hPa 0,0 l/m 10,5 km/h (2 Bft) SW 222 0 min 0,000 mm 0,8 UV-I 200 W/m 4,9 C 3,8 C 17,7 km/h (3 Bft) 100,00 %
16.04.2017 10:00 6,9 C 86 % 1016,8 hPa 0,0 l/m 12,5 km/h (3 Bft) W-SW 238 0 min 0,051 mm 1,0 UV-I 246 W/m 4,7 C 2,7 C 19,3 km/h (3 Bft) 100,00 %
16.04.2017 10:02 7,2 C 87 % 1016,8 hPa 0,0 l/m 8,1 km/h (2 Bft) W-SW 241 0 min 0,000 mm 1,3 UV-I 314 W/m 5,2 C 5,8 C 12,9 km/h (3 Bft) 100,00 %
16.04.2017 10:04 7,3 C 86 % 1016,8 hPa 0,0 l/m 7,8 km/h (2 Bft) SW 234 2 min 0,000 mm 1,4 UV-I 330 W/m 5,1 C 6,2 C 12,9 km/h (3 Bft) 98,00 %
16.04.2017 10:06 7,6 C 85 % 1016,9 hPa 0,0 l/m 12,7 km/h (3 Bft) SW 236 2 min 0,000 mm 1,5 UV-I 423 W/m 5,2 C 3,4 C 16,1 km/h (3 Bft) 100,00 %
16.04.2017 10:08 7,8 C 84 % 1016,8 hPa 0,0 l/m 10,4 km/h (2 Bft) SW 229 2 min 0,000 mm 1,5 UV-I 413 W/m 5,3 C 4,9 C 14,5 km/h (3 Bft) 100,00 %
16.04.2017 10:10 7,8 C 83 % 1016,8 hPa 0,0 l/m 11,5 km/h (2 Bft) W-SW 242 2 min 0,000 mm 1,6 UV-I 393 W/m 5,1 C 4,3 C 17,7 km/h (3 Bft) 100,00 %
16.04.2017 10:12 8,0 C 83 % 1016,8 hPa 0,0 l/m 14,8 km/h (3 Bft) W 269 2 min 0,000 mm 1,8 UV-I 560 W/m 5,3 C 2,8 C 22,5 km/h (4 Bft) 100,00 %
16.04.2017 10:14 8,2 C 82 % 1016,8 hPa 0,0 l/m 12,5 km/h (3 Bft) W-SW 242 2 min 0,000 mm 1,9 UV-I 580 W/m 5,3 C 4,2 C 17,7 km/h (3 Bft) 100,00 %
16.04.2017 10:16 8,2 C 81 % 1016,8 hPa 0,0 l/m 13,6 km/h (3 Bft) W-SW 246 2 min 0,000 mm 1,9 UV-I 555 W/m 5,1 C 3,6 C 20,9 km/h (4 Bft) 100,00 %
16.04.2017 10:18 8,4 C 81 % 1016,7 hPa 0,0 l/m 11,1 km/h (2 Bft) W-SW 248 2 min 0,000 mm 1,9 UV-I 522 W/m 5,3 C 5,2 C 19,3 km/h (3 Bft) 97,73 %
16.04.2017 10:20 8,6 C 78 % 1016,7 hPa 0,0 l/m 17,8 km/h (3 Bft) W 281 2 min 0,000 mm 2,0 UV-I 603 W/m 5,0 C 2,3 C 30,6 km/h (5 Bft) 100,00 %
16.04.2017 10:22 8,6 C 77 % 1016,7 hPa 0,0 l/m 11,8 km/h (2 Bft) W 261 2 min 0,000 mm 1,9 UV-I 594 W/m 4,8 C 5,0 C 16,1 km/h (3 Bft) 97,18 %
16.04.2017 10:24 8,7 C 77 % 1016,7 hPa 0,0 l/m 15,8 km/h (3 Bft) W 259 2 min 0,000 mm 2,0 UV-I 603 W/m 4,9 C 3,2 C 24,1 km/h (4 Bft) 92,11 %
16.04.2017 10:26 8,7 C 77 % 1016,7 hPa 0,0 l/m 8,6 km/h (2 Bft) W 260 2 min 0,000 mm 2,0 UV-I 590 W/m 4,9 C 7,1 C 20,9 km/h (4 Bft) 98,21 %
16.04.2017 10:28 8,8 C 77 % 1016,7 hPa 0,0 l/m 10,4 km/h (2 Bft) W-SW 242 2 min 0,000 mm 1,8 UV-I 474 W/m 5,0 C 6,0 C 17,7 km/h (3 Bft) 97,73 %
16.04.2017 10:30 8,9 C 77 % 1016,8 hPa 0,0 l/m 12,8 km/h (3 Bft) W 275 2 min 0,000 mm 1,6 UV-I 422 W/m 5,1 C 4,8 C 22,5 km/h (4 Bft) 96,00 %
16.04.2017 10:32 8,8 C 75 % 1016,7 hPa 0,0 l/m 20,8 km/h (4 Bft) W 280 2 min 0,000 mm 1,5 UV-I 415 W/m 4,6 C 1,5 C 32,2 km/h (5 Bft) 94,74 %
16.04.2017 10:34 8,7 C 73 % 1016,7 hPa 0,0 l/m 22,2 km/h (4 Bft) W-NW 282 0 min 0,000 mm 1,1 UV-I 273 W/m 4,1 C 0,9 C 30,6 km/h (5 Bft) 98,11 %
16.04.2017 10:36 8,5 C 73 % 1016,7 hPa 0,0 l/m 20,6 km/h (4 Bft) W 266 0 min 0,000 mm 1,1 UV-I 243 W/m 3,9 C 1,1 C 29,0 km/h (5 Bft) 98,00 %
16.04.2017 10:38 8,4 C 74 % 1016,7 hPa 0,0 l/m 17,5 km/h (3 Bft) SW 220 0 min 0,000 mm 1,0 UV-I 235 W/m 4,0 C 2,1 C 30,6 km/h (5 Bft) 97,87 %
16.04.2017 10:40 8,3 C 74 % 1016,7 hPa 0,0 l/m 13,9 km/h (3 Bft) W-NW 285 0 min 0,000 mm 1,0 UV-I 233 W/m 3,9 C 3,6 C 22,5 km/h (4 Bft) 100,00 %
16.04.2017 10:42 8,2 C 74 % 1016,8 hPa 0,0 l/m 14,4 km/h (3 Bft) W-NW 292 0 min 0,000 mm 1,0 UV-I 226 W/m 3,8 C 3,2 C 22,5 km/h (4 Bft) 98,11 %
16.04.2017 10:44 8,2 C 75 % 1016,7 hPa 0,0 l/m 11,6 km/h (2 Bft) W 261 0 min 0,000 mm 1,0 UV-I 226 W/m 4,0 C 4,7 C 17,7 km/h (3 Bft) 94,74 %
16.04.2017 10:46 8,3 C 76 % 1016,7 hPa 0,0 l/m 13,8 km/h (3 Bft) W-SW 242 0 min 0,000 mm 1,1 UV-I 241 W/m 4,3 C 3,6 C 24,1 km/h (4 Bft) 97,87 %
16.04.2017 10:48 8,3 C 75 % 1016,8 hPa 0,0 l/m 18,4 km/h (3 Bft) W-SW 257 0 min 0,000 mm 1,1 UV-I 235 W/m 4,1 C 1,7 C 25,7 km/h (4 Bft) 96,61 %
16.04.2017 10:50 8,4 C 75 % 1016,7 hPa 0,0 l/m 16,3 km/h (3 Bft) W-SW 246 0 min 0,000 mm 1,3 UV-I 267 W/m 4,2 C 2,6 C 24,1 km/h (4 Bft) 100,00 %
16.04.2017 10:52 8,4 C 73 % 1016,7 hPa 0,0 l/m 16,6 km/h (3 Bft) W-SW 257 0 min 0,000 mm 1,4 UV-I 293 W/m 3,8 C 2,5 C 25,7 km/h (4 Bft) 100,00 %
16.04.2017 10:54 8,4 C 71 % 1016,7 hPa 0,0 l/m 19,4 km/h (3 Bft) W 259 2 min 0,000 mm 1,7 UV-I 381 W/m 3,5 C 1,4 C 35,4 km/h (5 Bft) 95,56 %
16.04.2017 10:56 8,5 C 71 % 1016,6 hPa 0,0 l/m 18,4 km/h (3 Bft) SW 234 2 min 0,000 mm 1,9 UV-I 427 W/m 3,5 C 1,9 C 30,6 km/h (5 Bft) 100,00 %
16.04.2017 10:58 8,7 C 69 % 1016,6 hPa 0,0 l/m 18,5 km/h (3 Bft) W-NW 287 2 min 0,000 mm 2,1 UV-I 441 W/m 3,3 C 2,1 C 30,6 km/h (5 Bft) 98,00 %
16.04.2017 11:00 8,8 C 67 % 1016,6 hPa 0,0 l/m 20,4 km/h (4 Bft) SW 218 2 min 0,203 mm 2,0 UV-I 455 W/m 3,0 C 1,6 C 33,8 km/h (5 Bft) 100,00 %
16.04.2017 11:02 8,8 C 65 % 1016,6 hPa 0,0 l/m 29,6 km/h (5 Bft) W-SW 240 2 min 0,000 mm 1,9 UV-I 438 W/m 2,6 C -0,9 C 43,5 km/h (6 Bft) 100,00 %
16.04.2017 11:04 8,8 C 65 % 1016,6 hPa 0,0 l/m 18,2 km/h (3 Bft) W-SW 238 2 min 0,000 mm 1,9 UV-I 431 W/m 2,6 C 2,4 C 37,0 km/h (5 Bft) 100,00 %
16.04.2017 11:06 8,8 C 66 % 1016,6 hPa 0,0 l/m 17,6 km/h (3 Bft) W 267 2 min 0,000 mm 2,0 UV-I 460 W/m 2,8 C 2,6 C 29,0 km/h (5 Bft) 100,00 %
16.04.2017 11:08 8,8 C 64 % 1016,6 hPa 0,0 l/m 14,0 km/h (3 Bft) N 355 2 min 0,000 mm 2,0 UV-I 422 W/m 2,4 C 4,1 C 24,1 km/h (4 Bft) 100,00 %
16.04.2017 11:10 8,9 C 65 % 1016,6 hPa 0,0 l/m 13,9 km/h (3 Bft) W-SW 237 2 min 0,000 mm 2,1 UV-I 413 W/m 2,7 C 4,3 C 19,3 km/h (3 Bft) 98,00 %
16.04.2017 11:12 8,9 C 66 % 1016,6 hPa 0,0 l/m 16,3 km/h (3 Bft) W 270 0 min 0,000 mm 2,1 UV-I 344 W/m 2,9 C 3,2 C 22,5 km/h (4 Bft) 100,00 %
16.04.2017 11:14 8,9 C 66 % 1016,6 hPa 0,0 l/m 9,8 km/h (2 Bft) W-SW 258 0 min 0,000 mm 2,7 UV-I 338 W/m 2,9 C 6,5 C 17,7 km/h (3 Bft) 100,00 %
16.04.2017 11:16 9,1 C 66 % 1016,5 hPa 0,0 l/m 13,2 km/h (3 Bft) NW 304 2 min 0,000 mm 2,7 UV-I 501 W/m 3,1 C 4,9 C 17,7 km/h (3 Bft) 100,00 %
16.04.2017 11:18 9,3 C 66 % 1016,5 hPa 0,0 l/m 12,9 km/h (3 Bft) W 263 2 min 0,000 mm 2,9 UV-I 777 W/m 3,3 C 5,3 C 17,7 km/h (3 Bft) 100,00 %
16.04.2017 11:20 9,5 C 64 % 1016,5 hPa 0,0 l/m 18,3 km/h (3 Bft) SW 219 2 min 0,000 mm 2,4 UV-I 770 W/m 3,0 C 3,2 C 29,0 km/h (5 Bft) 98,57 %
16.04.2017 11:22 9,5 C 64 % 1016,5 hPa 0,0 l/m 16,7 km/h (3 Bft) W 265 2 min 0,000 mm 2,4 UV-I 558 W/m 3,0 C 3,8 C 27,4 km/h (4 Bft) 100,00 %
16.04.2017 11:24 9,5 C 65 % 1016,6 hPa 0,0 l/m 11,1 km/h (2 Bft) W 268 2 min 0,000 mm 2,2 UV-I 468 W/m 3,3 C 6,4 C 19,3 km/h (3 Bft) 100,00 %
16.04.2017 11:26 9,6 C 66 % 1016,6 hPa 0,0 l/m 10,7 km/h (2 Bft) W 279 2 min 0,000 mm 2,4 UV-I 480 W/m 3,6 C 6,8 C 20,9 km/h (4 Bft) 97,22 %
16.04.2017 11:28 9,8 C 66 % 1016,6 hPa 0,0 l/m 9,7 km/h (2 Bft) W 275 2 min 0,000 mm 2,5 UV-I 618 W/m 3,8 C 7,6 C 16,1 km/h (3 Bft) 100,00 %
16.04.2017 11:30 9,9 C 63 % 1016,6 hPa 0,0 l/m 18,4 km/h (3 Bft) W 277 2 min 0,000 mm 2,9 UV-I 509 W/m 3,2 C 3,7 C 27,4 km/h (4 Bft) 100,00 %
16.04.2017 11:32 9,8 C 62 % 1016,6 hPa 0,0 l/m 15,3 km/h (3 Bft) W-SW 252 2 min 0,000 mm 3,0 UV-I 751 W/m 2,9 C 4,8 C 24,1 km/h (4 Bft) 100,00 %
16.04.2017 11:34 9,9 C 64 % 1016,6 hPa 0,0 l/m 19,1 km/h (3 Bft) W 272 2 min 0,000 mm 3,0 UV-I 653 W/m 3,4 C 3,5 C 30,6 km/h (5 Bft) 100,00 %
16.04.2017 11:36 9,9 C 63 % 1016,6 hPa 0,0 l/m 11,8 km/h (2 Bft) N-NW 327 2 min 0,000 mm 2,8 UV-I 627 W/m 3,2 C 6,5 C 22,5 km/h (4 Bft) 97,87 %
16.04.2017 11:38 10,2 C 66 % 1016,5 hPa 0,0 l/m 7,8 km/h (2 Bft) SW 235 2 min 0,000 mm 2,6 UV-I 669 W/m 4,1 C 9,2 C 17,7 km/h (3 Bft) 100,00 %
16.04.2017 11:40 10,2 C 62 % 1016,5 hPa 0,0 l/m 7,8 km/h (2 Bft) W-NW 294 2 min 0,000 mm 2,2 UV-I 522 W/m 3,3 C 9,2 C 17,7 km/h (3 Bft) 100,00 %
16.04.2017 11:42 10,1 C 64 % 1016,5 hPa 0,0 l/m 10,7 km/h (2 Bft) W 281 2 min 0,000 mm 2,0 UV-I 428 W/m 3,6 C 7,3 C 25,7 km/h (4 Bft) 100,00 %
16.04.2017 11:44 9,9 C 63 % 1016,7 hPa 0,0 l/m 9,6 km/h (2 Bft) NW 313 2 min 0,000 mm 2,1 UV-I 615 W/m 3,2 C 7,7 C 20,9 km/h (4 Bft) 100,00 %
16.04.2017 11:46 9,7 C 63 % 1016,6 hPa 0,0 l/m 12,1 km/h (2 Bft) W 266 2 min 0,000 mm 2,1 UV-I 442 W/m 3,0 C 6,1 C 20,9 km/h (4 Bft) 100,00 %
16.04.2017 11:48 9,7 C 65 % 1016,6 hPa 0,0 l/m 16,9 km/h (3 Bft) W-NW 287 2 min 0,000 mm 2,1 UV-I 471 W/m 3,4 C 4,0 C 24,1 km/h (4 Bft) 100,00 %
16.04.2017 11:50 9,6 C 64 % 1016,5 hPa 0,0 l/m 13,3 km/h (3 Bft) W 262 2 min 0,000 mm 2,0 UV-I 514 W/m 3,1 C 5,4 C 22,5 km/h (4 Bft) 100,00 %
16.04.2017 11:52 9,5 C 65 % 1016,5 hPa 0,0 l/m 11,9 km/h (2 Bft) W-SW 248 2 min 0,000 mm 2,1 UV-I 420 W/m 3,3 C 6,0 C 17,7 km/h (3 Bft) 100,00 %
16.04.2017 11:54 9,6 C 66 % 1016,5 hPa 0,0 l/m 9,5 km/h (2 Bft) W-SW 252 2 min 0,000 mm 2,2 UV-I 455 W/m 3,6 C 7,5 C 16,1 km/h (3 Bft) 98,11 %
16.04.2017 11:56 9,7 C 69 % 1016,5 hPa 0,0 l/m 5,1 km/h (1 Bft) W 271 2 min 0,000 mm 2,3 UV-I 541 W/m 4,3 C 9,7 C 14,5 km/h (3 Bft) 97,56 %
16.04.2017 11:58 9,8 C 66 % 1016,5 hPa 0,0 l/m 8,5 km/h (2 Bft) W 268 2 min 0,000 mm 2,1 UV-I 501 W/m 3,8 C 8,3 C 16,1 km/h (3 Bft) 100,00 %
16.04.2017 12:00 9,7 C 62 % 1016,5 hPa 0,0 l/m 14,3 km/h (3 Bft) W-SW 247 2 min 0,279 mm 2,2 UV-I 430 W/m 2,8 C 5,1 C 30,6 km/h (5 Bft) 100,00 %
16.04.2017 12:02 9,5 C 63 % 1016,5 hPa 0,0 l/m 14,7 km/h (3 Bft) W-SW 255 2 min 0,000 mm 2,3 UV-I 456 W/m 2,8 C 4,7 C 25,7 km/h (4 Bft) 97,37 %
16.04.2017 12:04 9,4 C 62 % 1016,6 hPa 0,0 l/m 14,3 km/h (3 Bft) W-SW 246 2 min 0,000 mm 2,4 UV-I 462 W/m 2,5 C 4,7 C 22,5 km/h (4 Bft) 92,45 %
16.04.2017 12:06 9,4 C 61 % 1016,6 hPa 0,0 l/m 16,8 km/h (3 Bft) W 259 2 min 0,000 mm 2,5 UV-I 505 W/m 2,3 C 3,7 C 25,7 km/h (4 Bft) 96,00 %
16.04.2017 12:08 9,5 C 63 % 1016,6 hPa 0,0 l/m 13,1 km/h (3 Bft) W-SW 248 2 min 0,000 mm 2,7 UV-I 588 W/m 2,8 C 5,4 C 19,3 km/h (3 Bft) 95,12 %
16.04.2017 12:10 9,7 C 61 % 1016,6 hPa 0,0 l/m 11,0 km/h (2 Bft) W 271 2 min 0,000 mm 2,8 UV-I 616 W/m 2,5 C 6,7 C 17,7 km/h (3 Bft) 95,24 %
16.04.2017 12:12 9,8 C 62 % 1016,5 hPa 0,0 l/m 12,8 km/h (3 Bft) W-SW 241 2 min 0,000 mm 2,9 UV-I 600 W/m 2,9 C 5,9 C 20,9 km/h (4 Bft) 96,23 %
16.04.2017 12:14 9,9 C 61 % 1016,5 hPa 0,0 l/m 13,8 km/h (3 Bft) W-SW 250 2 min 0,000 mm 2,9 UV-I 628 W/m 2,7 C 5,5 C 19,3 km/h (3 Bft) 92,31 %
16.04.2017 12:16 10,0 C 59 % 1016,5 hPa 0,0 l/m 9,1 km/h (2 Bft) W-NW 294 2 min 0,000 mm 3,0 UV-I 695 W/m 2,4 C 8,1 C 17,7 km/h (3 Bft) 94,87 %
16.04.2017 12:18 10,1 C 57 % 1016,5 hPa 0,0 l/m 13,9 km/h (3 Bft) W 278 2 min 0,000 mm 3,0 UV-I 657 W/m 2,0 C 5,7 C 22,5 km/h (4 Bft) 96,00 %
16.04.2017 12:20 10,1 C 57 % 1016,5 hPa 0,0 l/m 18,3 km/h (3 Bft) W 271 2 min 0,000 mm 3,0 UV-I 645 W/m 2,0 C 4,0 C 25,7 km/h (4 Bft) 95,74 %
16.04.2017 12:22 10,1 C 54 % 1016,5 hPa 0,0 l/m 21,7 km/h (4 Bft) W 277 2 min 0,000 mm 3,0 UV-I 681 W/m 1,2 C 2,9 C 30,6 km/h (5 Bft) 92,11 %
16.04.2017 12:24 10,1 C 53 % 1016,5 hPa 0,0 l/m 19,2 km/h (3 Bft) SW 219 2 min 0,000 mm 3,1 UV-I 700 W/m 1,0 C 3,7 C 29,0 km/h (5 Bft) 94,00 %
16.04.2017 12:26 10,2 C 56 % 1016,5 hPa 0,0 l/m 13,1 km/h (3 Bft) W-SW 256 2 min 0,000 mm 3,0 UV-I 664 W/m 1,8 C 6,2 C 22,5 km/h (4 Bft) 94,00 %
16.04.2017 12:28 10,2 C 57 % 1016,6 hPa 0,0 l/m 13,9 km/h (3 Bft) W 267 2 min 0,000 mm 2,9 UV-I 660 W/m 2,1 C 5,8 C 20,9 km/h (4 Bft) 96,00 %
16.04.2017 12:30 10,2 C 55 % 1016,4 hPa 0,0 l/m 17,9 km/h (3 Bft) W 274 2 min 0,000 mm 2,9 UV-I 658 W/m 1,6 C 4,3 C 30,6 km/h (5 Bft) 95,12 %
16.04.2017 12:32 10,3 C 56 % 1016,5 hPa 0,0 l/m 14,4 km/h (3 Bft) SW 217 2 min 0,000 mm 2,9 UV-I 654 W/m 1,9 C 5,8 C 27,4 km/h (4 Bft) 94,64 %
16.04.2017 12:34 10,4 C 56 % 1016,4 hPa 0,0 l/m 14,5 km/h (3 Bft) NW 305 2 min 0,000 mm 2,8 UV-I 633 W/m 2,0 C 5,8 C 24,1 km/h (4 Bft) 95,74 %
16.04.2017 12:36 10,5 C 56 % 1016,4 hPa 0,0 l/m 9,5 km/h (2 Bft) W 260 2 min 0,000 mm 2,7 UV-I 598 W/m 2,1 C 8,4 C 20,9 km/h (4 Bft) 97,37 %
16.04.2017 12:38 10,6 C 56 % 1016,4 hPa 0,0 l/m 15,9 km/h (3 Bft) W 262 2 min 0,000 mm 2,6 UV-I 558 W/m 2,2 C 5,5 C 24,1 km/h (4 Bft) 97,87 %
16.04.2017 12:40 10,5 C 57 % 1016,5 hPa 0,0 l/m 18,0 km/h (3 Bft) W-SW 257 2 min 0,000 mm 2,6 UV-I 569 W/m 2,3 C 4,6 C 29,0 km/h (5 Bft) 98,00 %
16.04.2017 12:42 10,4 C 56 % 1016,5 hPa 0,0 l/m 22,2 km/h (4 Bft) W 264 2 min 0,000 mm 2,7 UV-I 581 W/m 2,0 C 3,1 C 30,6 km/h (5 Bft) 97,73 %
16.04.2017 12:44 10,2 C 55 % 1016,5 hPa 0,0 l/m 14,9 km/h (3 Bft) W-SW 239 2 min 0,000 mm 2,7 UV-I 586 W/m 1,6 C 5,4 C 33,8 km/h (5 Bft) 97,62 %
16.04.2017 12:46 10,2 C 56 % 1016,4 hPa 0,0 l/m 12,9 km/h (3 Bft) W-SW 254 2 min 0,000 mm 2,6 UV-I 577 W/m 1,8 C 6,3 C 19,3 km/h (3 Bft) 96,15 %
16.04.2017 12:48 10,2 C 58 % 1016,4 hPa 0,0 l/m 12,6 km/h (3 Bft) W 269 2 min 0,000 mm 2,5 UV-I 538 W/m 2,3 C 6,5 C 22,5 km/h (4 Bft) 96,23 %
16.04.2017 12:50 10,3 C 57 % 1016,5 hPa 0,0 l/m 15,2 km/h (3 Bft) W 263 2 min 0,000 mm 2,4 UV-I 521 W/m 2,2 C 5,4 C 25,7 km/h (4 Bft) 94,87 %
16.04.2017 12:52 10,2 C 56 % 1016,6 hPa 0,0 l/m 20,5 km/h (4 Bft) W-SW 252 2 min 0,000 mm 2,2 UV-I 468 W/m 1,8 C 3,4 C 29,0 km/h (5 Bft) 96,15 %
16.04.2017 12:54 10,1 C 54 % 1016,5 hPa 0,0 l/m 21,4 km/h (4 Bft) W 271 2 min 0,000 mm 2,3 UV-I 480 W/m 1,2 C 3,0 C 35,4 km/h (5 Bft) 97,37 %
16.04.2017 12:56 10,1 C 56 % 1016,5 hPa 0,0 l/m 16,0 km/h (3 Bft) W 277 2 min 0,000 mm 2,5 UV-I 527 W/m 1,7 C 4,8 C 27,4 km/h (4 Bft) 98,31 %
16.04.2017 12:58 10,1 C 55 % 1016,5 hPa 0,0 l/m 15,5 km/h (3 Bft) W-SW 250 2 min 0,000 mm 2,5 UV-I 526 W/m 1,5 C 5,0 C 25,7 km/h (4 Bft) 97,56 %
16.04.2017 13:00 10,2 C 57 % 1016,5 hPa 0,0 l/m 13,4 km/h (3 Bft) W 263 2 min 0,330 mm 2,5 UV-I 564 W/m 2,1 C 6,1 C 20,9 km/h (4 Bft) 97,73 %
16.04.2017 13:02 10,3 C 58 % 1016,5 hPa 0,0 l/m 13,7 km/h (3 Bft) W-NW 283 2 min 0,000 mm 2,6 UV-I 582 W/m 2,4 C 6,1 C 22,5 km/h (4 Bft) 98,00 %
16.04.2017 13:04 10,4 C 57 % 1016,4 hPa 0,0 l/m 13,3 km/h (3 Bft) W-SW 248 2 min 0,000 mm 2,5 UV-I 577 W/m 2,3 C 6,4 C 22,5 km/h (4 Bft) 97,73 %
16.04.2017 13:06 10,4 C 56 % 1016,5 hPa 0,0 l/m 15,3 km/h (3 Bft) W 281 2 min 0,000 mm 2,5 UV-I 549 W/m 2,0 C 5,5 C 27,4 km/h (4 Bft) 98,00 %
16.04.2017 13:08 10,4 C 54 % 1016,5 hPa 0,0 l/m 19,0 km/h (3 Bft) W-SW 253 2 min 0,000 mm 2,6 UV-I 570 W/m 1,5 C 4,1 C 27,4 km/h (4 Bft) 92,68 %
16.04.2017 13:10 10,3 C 55 % 1016,4 hPa 0,0 l/m 19,3 km/h (3 Bft) W-SW 257 2 min 0,000 mm 2,5 UV-I 574 W/m 1,7 C 3,9 C 32,2 km/h (5 Bft) 96,43 %
16.04.2017 13:12 10,3 C 54 % 1016,4 hPa 0,0 l/m 20,1 km/h (4 Bft) SW 229 2 min 0,000 mm 2,5 UV-I 552 W/m 1,4 C 3,6 C 29,0 km/h (5 Bft) 97,56 %
16.04.2017 13:14 10,2 C 56 % 1016,4 hPa 0,0 l/m 16,1 km/h (3 Bft) W 277 2 min 0,000 mm 2,3 UV-I 491 W/m 1,8 C 4,9 C 25,7 km/h (4 Bft) 100,00 %
16.04.2017 13:16 10,3 C 58 % 1016,4 hPa 0,0 l/m 16,4 km/h (3 Bft) W-SW 250 0 min 0,000 mm 2,2 UV-I 420 W/m 2,4 C 4,9 C 27,4 km/h (4 Bft) 96,36 %
16.04.2017 13:18 10,2 C 55 % 1016,4 hPa 0,0 l/m 19,0 km/h (3 Bft) W-NW 299 2 min 0,000 mm 2,3 UV-I 488 W/m 1,6 C 3,9 C 30,6 km/h (5 Bft) 96,23 %
16.04.2017 13:20 10,2 C 55 % 1016,4 hPa 0,0 l/m 18,1 km/h (3 Bft) W 271 2 min 0,000 mm 2,3 UV-I 486 W/m 1,6 C 4,2 C 25,7 km/h (4 Bft) 94,74 %
16.04.2017 13:22 10,2 C 55 % 1016,5 hPa 0,0 l/m 16,7 km/h (3 Bft) W-SW 249 2 min 0,000 mm 2,1 UV-I 434 W/m 1,6 C 4,7 C 27,4 km/h (4 Bft) 98,11 %
16.04.2017 13:24 10,1 C 54 % 1016,4 hPa 0,0 l/m 18,7 km/h (3 Bft) W-SW 257 0 min 0,000 mm 2,0 UV-I 395 W/m 1,2 C 3,9 C 33,8 km/h (5 Bft) 98,00 %
16.04.2017 13:26 9,9 C 56 % 1016,4 hPa 0,0 l/m 13,5 km/h (3 Bft) W-SW 238 0 min 0,000 mm 1,9 UV-I 375 W/m 1,5 C 5,7 C 20,9 km/h (4 Bft) 92,68 %
16.04.2017 13:28 10,0 C 57 % 1016,4 hPa 0,0 l/m 13,4 km/h (3 Bft) NW 325 2 min 0,000 mm 2,0 UV-I 431 W/m 1,9 C 5,8 C 24,1 km/h (4 Bft) 97,44 %
16.04.2017 13:30 10,1 C 57 % 1016,4 hPa 0,0 l/m 12,2 km/h (2 Bft) SW 219 2 min 0,000 mm 2,0 UV-I 440 W/m 2,0 C 6,5 C 19,3 km/h (3 Bft) 100,00 %
16.04.2017 13:32 10,2 C 59 % 1016,4 hPa 0,0 l/m 16,0 km/h (3 Bft) W-SW 238 0 min 0,000 mm 2,0 UV-I 412 W/m 2,6 C 5,0 C 32,2 km/h (5 Bft) 100,00 %
16.04.2017 13:34 10,2 C 57 % 1016,4 hPa 0,0 l/m 19,9 km/h (4 Bft) W 278 0 min 0,000 mm 1,9 UV-I 402 W/m 2,1 C 3,6 C 37,0 km/h (5 Bft) 97,73 %
16.04.2017 13:36 10,2 C 58 % 1016,4 hPa 0,0 l/m 15,7 km/h (3 Bft) W-SW 250 0 min 0,000 mm 1,9 UV-I 420 W/m 2,3 C 5,1 C 25,7 km/h (4 Bft) 100,00 %
16.04.2017 13:38 10,2 C 58 % 1016,4 hPa 0,0 l/m 23,6 km/h (4 Bft) W 275 0 min 0,000 mm 1,8 UV-I 390 W/m 2,3 C 2,5 C 32,2 km/h (5 Bft) 100,00 %
16.04.2017 13:40 10,1 C 58 % 1016,4 hPa 0,0 l/m 17,0 km/h (3 Bft) W-SW 247 0 min 0,000 mm 1,4 UV-I 290 W/m 2,2 C 4,5 C 27,4 km/h (4 Bft) 100,00 %
16.04.2017 13:42 9,9 C 59 % 1016,3 hPa 0,0 l/m 15,5 km/h (3 Bft) W 277 0 min 0,000 mm 1,1 UV-I 219 W/m 2,3 C 4,8 C 24,1 km/h (4 Bft) 100,00 %
16.04.2017 13:44 9,8 C 60 % 1016,3 hPa 0,0 l/m 10,6 km/h (2 Bft) W 277 0 min 0,000 mm 0,9 UV-I 181 W/m 2,4 C 7,0 C 17,7 km/h (3 Bft) 100,00 %
16.04.2017 13:46 9,8 C 63 % 1016,3 hPa 0,0 l/m 14,6 km/h (3 Bft) W-SW 237 0 min 0,000 mm 1,2 UV-I 243 W/m 3,1 C 5,1 C 24,1 km/h (4 Bft) 100,00 %
16.04.2017 13:48 9,8 C 62 % 1016,4 hPa 0,0 l/m 17,3 km/h (3 Bft) SW 221 0 min 0,000 mm 1,4 UV-I 308 W/m 2,9 C 4,0 C 29,0 km/h (5 Bft) 100,00 %
16.04.2017 13:50 9,8 C 63 % 1016,4 hPa 0,0 l/m 17,3 km/h (3 Bft) W-SW 257 0 min 0,000 mm 1,3 UV-I 281 W/m 3,1 C 4,0 C 27,4 km/h (4 Bft) 94,00 %
16.04.2017 13:52 9,7 C 63 % 1016,4 hPa 0,0 l/m 13,8 km/h (3 Bft) SW 235 0 min 0,000 mm 1,2 UV-I 262 W/m 3,0 C 5,3 C 25,7 km/h (4 Bft) 97,37 %
16.04.2017 13:54 9,6 C 63 % 1016,4 hPa 0,0 l/m 15,4 km/h (3 Bft) W-SW 250 0 min 0,000 mm 1,1 UV-I 232 W/m 2,9 C 4,5 C 24,1 km/h (4 Bft) 98,00 %
16.04.2017 13:56 9,6 C 64 % 1016,4 hPa 0,0 l/m 16,3 km/h (3 Bft) W-SW 251 0 min 0,000 mm 0,9 UV-I 197 W/m 3,1 C 4,1 C 25,7 km/h (4 Bft) 96,23 %
16.04.2017 13:58 9,5 C 65 % 1016,4 hPa 0,0 l/m 15,4 km/h (3 Bft) W-SW 257 0 min 0,000 mm 1,0 UV-I 205 W/m 3,3 C 4,4 C 22,5 km/h (4 Bft) 97,56 %
16.04.2017 14:00 9,6 C 65 % 1016,4 hPa 0,0 l/m 13,7 km/h (3 Bft) W-NW 288 0 min 0,254 mm 1,1 UV-I 227 W/m 3,4 C 5,2 C 22,5 km/h (4 Bft) 98,11 %
16.04.2017 14:02 9,5 C 64 % 1016,4 hPa 0,0 l/m 17,3 km/h (3 Bft) W-SW 251 0 min 0,000 mm 1,0 UV-I 209 W/m 3,0 C 3,6 C 29,0 km/h (5 Bft) 94,74 %
16.04.2017 14:04 9,4 C 62 % 1016,5 hPa 0,0 l/m 19,7 km/h (3 Bft) W-SW 254 0 min 0,000 mm 0,9 UV-I 199 W/m 2,5 C 2,6 C 30,6 km/h (5 Bft) 98,11 %
16.04.2017 14:06 9,4 C 61 % 1016,4 hPa 0,0 l/m 13,6 km/h (3 Bft) W 260 0 min 0,000 mm 0,9 UV-I 197 W/m 2,3 C 5,0 C 27,4 km/h (4 Bft) 97,87 %
16.04.2017 14:08 9,3 C 61 % 1016,5 hPa 0,0 l/m 14,7 km/h (3 Bft) W 268 0 min 0,000 mm 0,8 UV-I 186 W/m 2,2 C 4,4 C 20,9 km/h (4 Bft) 96,00 %
16.04.2017 14:10 9,3 C 60 % 1016,4 hPa 0,0 l/m 20,4 km/h (4 Bft) W-SW 254 0 min 0,000 mm 1,0 UV-I 220 W/m 1,9 C 2,2 C 30,6 km/h (5 Bft) 97,62 %
16.04.2017 14:12 9,3 C 60 % 1016,4 hPa 0,0 l/m 18,7 km/h (3 Bft) W-NW 286 0 min 0,000 mm 1,3 UV-I 270 W/m 1,9 C 2,8 C 30,6 km/h (5 Bft) 98,00 %
16.04.2017 14:14 9,4 C 61 % 1016,5 hPa 0,0 l/m 14,2 km/h (3 Bft) W 267 0 min 0,000 mm 1,3 UV-I 277 W/m 2,3 C 4,8 C 30,6 km/h (5 Bft) 97,37 %
16.04.2017 14:16 9,4 C 62 % 1016,4 hPa 0,0 l/m 19,9 km/h (4 Bft) W-SW 244 0 min 0,000 mm 1,1 UV-I 241 W/m 2,5 C 2,5 C 38,6 km/h (5 Bft) 96,23 %
16.04.2017 14:18 9,3 C 65 % 1016,6 hPa 0,0 l/m 19,2 km/h (3 Bft) SW 236 0 min 0,000 mm 1,4 UV-I 304 W/m 3,1 C 2,7 C 27,4 km/h (4 Bft) 98,00 %
16.04.2017 14:20 9,2 C 68 % 1016,5 hPa 0,0 l/m 18,4 km/h (3 Bft) S-SW 198 0 min 0,000 mm 1,5 UV-I 332 W/m 3,6 C 2,8 C 32,2 km/h (5 Bft) 100,00 %
16.04.2017 14:22 9,1 C 70 % 1016,5 hPa 0,0 l/m 17,6 km/h (3 Bft) W-SW 242 0 min 0,000 mm 1,0 UV-I 220 W/m 3,9 C 3,0 C 27,4 km/h (4 Bft) 100,00 %
16.04.2017 14:24 8,9 C 71 % 1016,4 hPa 0,0 l/m 20,4 km/h (4 Bft) SW 217 0 min 0,000 mm 0,8 UV-I 188 W/m 3,9 C 1,7 C 43,5 km/h (6 Bft) 100,00 %
16.04.2017 14:26 8,8 C 71 % 1016,5 hPa 0,0 l/m 21,1 km/h (4 Bft) W-NW 286 0 min 0,000 mm 1,1 UV-I 274 W/m 3,8 C 1,4 C 32,2 km/h (5 Bft) 100,00 %
16.04.2017 14:28 8,7 C 73 % 1016,5 hPa 0,0 l/m 20,9 km/h (4 Bft) SW 236 0 min 0,000 mm 1,3 UV-I 289 W/m 4,1 C 1,3 C 29,0 km/h (5 Bft) 100,00 %
16.04.2017 14:30 8,7 C 74 % 1016,5 hPa 0,0 l/m 23,4 km/h (4 Bft) W-SW 238 0 min 0,000 mm 1,2 UV-I 254 W/m 4,3 C 0,5 C 37,0 km/h (5 Bft) 100,00 %
16.04.2017 14:32 8,6 C 72 % 1016,5 hPa 0,0 l/m 27,8 km/h (4 Bft) SW 235 0 min 0,000 mm 1,0 UV-I 213 W/m 3,8 C -0,8 C 41,8 km/h (6 Bft) 97,87 %
16.04.2017 14:34 8,3 C 72 % 1016,5 hPa 0,0 l/m 29,7 km/h (5 Bft) SW 233 0 min 0,000 mm 0,9 UV-I 189 W/m 3,6 C -1,7 C 45,1 km/h (6 Bft) 97,37 %
16.04.2017 14:36 8,3 C 73 % 1016,5 hPa 0,0 l/m 23,9 km/h (4 Bft) W 259 0 min 0,000 mm 1,0 UV-I 208 W/m 3,8 C -0,2 C 35,4 km/h (5 Bft) 98,21 %
16.04.2017 14:38 8,2 C 74 % 1016,6 hPa 0,0 l/m 19,8 km/h (3 Bft) SW 221 0 min 0,000 mm 1,0 UV-I 204 W/m 3,8 C 1,0 C 27,4 km/h (4 Bft) 96,23 %
16.04.2017 14:40 8,2 C 74 % 1016,6 hPa 0,0 l/m 22,9 km/h (4 Bft) W-SW 238 0 min 0,000 mm 0,9 UV-I 198 W/m 3,8 C 0,0 C 33,8 km/h (5 Bft) 100,00 %
16.04.2017 14:42 8,2 C 75 % 1016,5 hPa 0,0 l/m 20,1 km/h (4 Bft) W-SW 243 0 min 0,000 mm 1,0 UV-I 223 W/m 4,0 C 0,9 C 29,0 km/h (5 Bft) 100,00 %
16.04.2017 14:44 8,2 C 76 % 1016,6 hPa 0,0 l/m 23,1 km/h (4 Bft) S 188 0 min 0,000 mm 1,3 UV-I 267 W/m 4,2 C -0,1 C 35,4 km/h (5 Bft) 100,00 %
16.04.2017 14:46 8,3 C 74 % 1016,5 hPa 0,0 l/m 21,3 km/h (4 Bft) W-SW 244 0 min 0,000 mm 1,3 UV-I 293 W/m 3,9 C 0,7 C 30,6 km/h (5 Bft) 100,00 %
16.04.2017 14:48 8,3 C 74 % 1016,5 hPa 0,0 l/m 23,1 km/h (4 Bft) W-SW 239 0 min 0,000 mm 1,5 UV-I 359 W/m 3,9 C 0,1 C 38,6 km/h (5 Bft) 100,00 %
16.04.2017 14:50 8,4 C 74 % 1016,5 hPa 0,0 l/m 21,7 km/h (4 Bft) W 271 0 min 0,000 mm 1,7 UV-I 379 W/m 4,0 C 0,7 C 32,2 km/h (5 Bft) 100,00 %
16.04.2017 14:52 8,6 C 73 % 1016,4 hPa 0,0 l/m 16,6 km/h (3 Bft) W 263 0 min 0,000 mm 1,7 UV-I 376 W/m 4,0 C 2,8 C 25,7 km/h (4 Bft) 100,00 %
16.04.2017 14:54 8,7 C 73 % 1016,5 hPa 0,0 l/m 16,5 km/h (3 Bft) SW 227 0 min 0,000 mm 1,7 UV-I 378 W/m 4,1 C 2,9 C 32,2 km/h (5 Bft) 100,00 %
16.04.2017 14:56 8,8 C 71 % 1016,4 hPa 0,0 l/m 19,8 km/h (3 Bft) W-SW 254 0 min 0,000 mm 1,7 UV-I 387 W/m 3,8 C 1,8 C 33,8 km/h (5 Bft) 100,00 %
16.04.2017 14:58 8,8 C 71 % 1016,4 hPa 0,0 l/m 18,9 km/h (3 Bft) W-SW 258 2 min 0,000 mm 1,7 UV-I 397 W/m 3,8 C 2,1 C 35,4 km/h (5 Bft) 100,00 %
16.04.2017 15:00 8,8 C 70 % 1016,4 hPa 0,0 l/m 22,9 km/h (4 Bft) W-SW 250 2 min 0,000 mm 1,7 UV-I 415 W/m 3,6 C 0,8 C 33,8 km/h (5 Bft) 95,74 %
16.04.2017 15:02 8,9 C 71 % 1016,4 hPa 0,0 l/m 15,7 km/h (3 Bft) W-SW 242 2 min 0,178 mm 1,8 UV-I 439 W/m 3,9 C 3,5 C 25,7 km/h (4 Bft) 100,00 %
16.04.2017 15:04 9,0 C 70 % 1016,4 hPa 0,0 l/m 21,1 km/h (4 Bft) W-SW 246 2 min 0,000 mm 1,7 UV-I 423 W/m 3,8 C 1,6 C 38,6 km/h (5 Bft) 100,00 %
16.04.2017 15:06 8,9 C 70 % 1016,3 hPa 0,0 l/m 20,5 km/h (4 Bft) S-SW 199 2 min 0,000 mm 1,7 UV-I 400 W/m 3,7 C 1,7 C 33,8 km/h (5 Bft) 100,00 %
16.04.2017 15:08 8,9 C 70 % 1016,3 hPa 0,0 l/m 22,7 km/h (4 Bft) SW 216 0 min 0,000 mm 1,5 UV-I 370 W/m 3,7 C 1,0 C 32,2 km/h (5 Bft) 100,00 %
16.04.2017 15:10 8,9 C 70 % 1016,4 hPa 0,0 l/m 20,3 km/h (4 Bft) W-SW 250 0 min 0,000 mm 1,4 UV-I 336 W/m 3,7 C 1,8 C 32,2 km/h (5 Bft) 96,43 %
16.04.2017 15:12 8,9 C 71 % 1016,3 hPa 0,0 l/m 19,9 km/h (4 Bft) W-SW 248 0 min 0,000 mm 1,4 UV-I 338 W/m 3,9 C 1,9 C 35,4 km/h (5 Bft) 97,87 %
16.04.2017 15:14 8,8 C 71 % 1016,3 hPa 0,0 l/m 23,6 km/h (4 Bft) W-SW 238 0 min 0,000 mm 1,4 UV-I 333 W/m 3,8 C 0,6 C 33,8 km/h (5 Bft) 100,00 %
16.04.2017 15:16 8,8 C 72 % 1016,3 hPa 0,0 l/m 14,9 km/h (3 Bft) W-SW 242 0 min 0,000 mm 1,3 UV-I 323 W/m 4,0 C 3,7 C 25,7 km/h (4 Bft) 100,00 %
16.04.2017 15:18 8,9 C 72 % 1016,3 hPa 0,0 l/m 18,1 km/h (3 Bft) W-SW 245 0 min 0,000 mm 1,3 UV-I 327 W/m 4,1 C 2,5 C 27,4 km/h (4 Bft) 100,00 %
16.04.2017 15:20 8,9 C 71 % 1016,3 hPa 0,0 l/m 16,9 km/h (3 Bft) SW 232 0 min 0,000 mm 1,4 UV-I 341 W/m 3,9 C 3,0 C 22,5 km/h (4 Bft) 100,00 %
16.04.2017 15:22 8,9 C 72 % 1016,3 hPa 0,0 l/m 16,0 km/h (3 Bft) W-NW 288 0 min 0,000 mm 1,4 UV-I 347 W/m 4,1 C 3,4 C 22,5 km/h (4 Bft) 100,00 %
16.04.2017 15:24 8,9 C 71 % 1016,3 hPa 0,0 l/m 20,9 km/h (4 Bft) SW 234 0 min 0,000 mm 1,4 UV-I 346 W/m 3,9 C 1,6 C 35,4 km/h (5 Bft) 97,62 %
16.04.2017 15:26 8,9 C 72 % 1016,3 hPa 0,0 l/m 18,1 km/h (3 Bft) SW 215 0 min 0,000 mm 1,4 UV-I 345 W/m 4,1 C 2,5 C 24,1 km/h (4 Bft) 100,00 %
16.04.2017 15:28 8,9 C 72 % 1016,3 hPa 0,0 l/m 22,1 km/h (4 Bft) S-SW 198 0 min 0,000 mm 1,3 UV-I 338 W/m 4,1 C 1,2 C 33,8 km/h (5 Bft) 100,00 %
16.04.2017 15:30 8,9 C 73 % 1016,3 hPa 0,0 l/m 16,5 km/h (3 Bft) S-SW 207 0 min 0,000 mm 1,3 UV-I 326 W/m 4,3 C 3,2 C 25,7 km/h (4 Bft) 100,00 %
16.04.2017 15:32 9,0 C 72 % 1016,4 hPa 0,0 l/m 21,6 km/h (4 Bft) SW 223 0 min 0,000 mm 1,2 UV-I 313 W/m 4,2 C 1,5 C 32,2 km/h (5 Bft) 100,00 %
16.04.2017 15:34 8,9 C 72 % 1016,3 hPa 0,0 l/m 17,8 km/h (3 Bft) SW 228 0 min 0,000 mm 1,2 UV-I 307 W/m 4,1 C 2,7 C 29,0 km/h (5 Bft) 100,00 %
16.04.2017 15:36 8,9 C 73 % 1016,3 hPa 0,0 l/m 20,0 km/h (4 Bft) W-SW 254 0 min 0,000 mm 1,2 UV-I 306 W/m 4,3 C 1,9 C 33,8 km/h (5 Bft) 100,00 %
16.04.2017 15:38 8,8 C 72 % 1016,3 hPa 0,0 l/m 18,5 km/h (3 Bft) W-SW 242 0 min 0,000 mm 1,1 UV-I 300 W/m 4,0 C 2,3 C 30,6 km/h (5 Bft) 98,11 %
16.04.2017 15:40 8,8 C 71 % 1016,3 hPa 0,0 l/m 22,0 km/h (4 Bft) SW 234 0 min 0,000 mm 1,1 UV-I 292 W/m 3,8 C 1,1 C 29,0 km/h (5 Bft) 95,74 %
16.04.2017 15:42 8,8 C 70 % 1016,3 hPa 0,0 l/m 21,8 km/h (4 Bft) W-SW 257 0 min 0,000 mm 1,1 UV-I 284 W/m 3,6 C 1,1 C 41,8 km/h (6 Bft) 100,00 %
16.04.2017 15:44 8,8 C 70 % 1016,3 hPa 0,0 l/m 19,9 km/h (4 Bft) W-SW 246 0 min 0,000 mm 1,0 UV-I 276 W/m 3,6 C 1,8 C 32,2 km/h (5 Bft) 95,74 %
16.04.2017 15:46 8,8 C 70 % 1016,3 hPa 0,0 l/m 17,8 km/h (3 Bft) W-SW 250 0 min 0,000 mm 1,0 UV-I 250 W/m 3,6 C 2,5 C 30,6 km/h (5 Bft) 98,21 %
16.04.2017 15:48 8,8 C 70 % 1016,3 hPa 0,0 l/m 17,4 km/h (3 Bft) W-SW 245 0 min 0,000 mm 0,8 UV-I 207 W/m 3,6 C 2,7 C 29,0 km/h (5 Bft) 97,14 %
16.04.2017 15:50 8,8 C 70 % 1016,3 hPa 0,0 l/m 16,1 km/h (3 Bft) SW 231 0 min 0,000 mm 0,7 UV-I 178 W/m 3,6 C 3,2 C 24,1 km/h (4 Bft) 98,15 %
16.04.2017 15:52 8,7 C 71 % 1016,3 hPa 0,0 l/m 19,4 km/h (3 Bft) W-SW 256 0 min 0,000 mm 0,6 UV-I 153 W/m 3,7 C 1,8 C 33,8 km/h (5 Bft) 95,74 %
16.04.2017 15:54 8,7 C 70 % 1016,3 hPa 0,0 l/m 20,9 km/h (4 Bft) W-SW 252 0 min 0,000 mm 0,0 UV-I 113 W/m 3,5 C 1,3 C 32,2 km/h (5 Bft) 97,87 %
16.04.2017 15:56 8,6 C 71 % 1016,3 hPa 0,0 l/m 20,0 km/h (4 Bft) S-SW 200 0 min 0,000 mm 0,0 UV-I 98 W/m 3,6 C 1,5 C 29,0 km/h (5 Bft) 96,00 %
16.04.2017 15:58 8,6 C 72 % 1016,3 hPa 0,0 l/m 14,0 km/h (3 Bft) S-SW 200 0 min 0,000 mm 0,0 UV-I 93 W/m 3,8 C 3,9 C 24,1 km/h (4 Bft) 94,00 %
16.04.2017 16:00 8,5 C 72 % 1016,3 hPa 0,0 l/m 19,8 km/h (3 Bft) SW 230 0 min 0,178 mm 0,0 UV-I 89 W/m 3,7 C 1,4 C 27,4 km/h (4 Bft) 94,74 %
16.04.2017 16:02 8,4 C 73 % 1016,4 hPa 0,0 l/m 21,4 km/h (4 Bft) W 273 0 min 0,000 mm 0,0 UV-I 84 W/m 3,8 C 0,7 C 35,4 km/h (5 Bft) 96,23 %
16.04.2017 16:04 8,3 C 74 % 1016,4 hPa 0,0 l/m 16,9 km/h (3 Bft) SW 234 0 min 0,000 mm 0,0 UV-I 83 W/m 3,9 C 2,3 C 25,7 km/h (4 Bft) 97,62 %
16.04.2017 16:06 8,2 C 75 % 1016,4 hPa 0,0 l/m 15,4 km/h (3 Bft) SW 221 0 min 0,000 mm 0,0 UV-I 82 W/m 4,0 C 2,8 C 27,4 km/h (4 Bft) 98,00 %
16.04.2017 16:08 8,1 C 75 % 1016,4 hPa 0,0 l/m 20,7 km/h (4 Bft) W 270 0 min 0,000 mm 0,0 UV-I 102 W/m 3,9 C 0,6 C 32,2 km/h (5 Bft) 100,00 %
16.04.2017 16:10 7,9 C 76 % 1016,5 hPa 0,0 l/m 14,5 km/h (3 Bft) W-SW 255 0 min 0,000 mm 0,0 UV-I 98 W/m 3,9 C 2,8 C 27,4 km/h (4 Bft) 100,00 %
16.04.2017 16:12 7,8 C 76 % 1016,5 hPa 0,0 l/m 22,8 km/h (4 Bft) W-NW 292 0 min 0,000 mm 0,0 UV-I 79 W/m 3,8 C -0,5 C 35,4 km/h (5 Bft) 98,00 %
16.04.2017 16:14 7,7 C 77 % 1016,5 hPa 0,0 l/m 18,3 km/h (3 Bft) W 266 0 min 0,000 mm 0,0 UV-I 72 W/m 3,9 C 0,9 C 25,7 km/h (4 Bft) 100,00 %
16.04.2017 16:16 7,6 C 77 % 1016,6 hPa 0,0 l/m 22,1 km/h (4 Bft) W-NW 297 0 min 0,000 mm 0,0 UV-I 68 W/m 3,8 C -0,5 C 32,2 km/h (5 Bft) 100,00 %
16.04.2017 16:18 7,4 C 78 % 1016,6 hPa 0,0 l/m 17,5 km/h (3 Bft) W-SW 258 0 min 0,000 mm 0,0 UV-I 67 W/m 3,8 C 0,9 C 29,0 km/h (5 Bft) 100,00 %
16.04.2017 16:20 7,3 C 79 % 1016,6 hPa 0,0 l/m 16,5 km/h (3 Bft) W-SW 241 0 min 0,000 mm 0,0 UV-I 63 W/m 3,9 C 1,2 C 22,5 km/h (4 Bft) 97,87 %
16.04.2017 16:22 7,1 C 80 % 1016,7 hPa 0,0 l/m 12,3 km/h (3 Bft) W-SW 252 0 min 0,000 mm 0,0 UV-I 69 W/m 3,9 C 3,0 C 20,9 km/h (4 Bft) 95,45 %
16.04.2017 16:24 7,0 C 82 % 1016,7 hPa 0,0 l/m 12,6 km/h (3 Bft) W 269 0 min 0,000 mm 0,0 UV-I 70 W/m 4,1 C 2,7 C 16,1 km/h (3 Bft) 98,00 %
16.04.2017 16:26 6,9 C 83 % 1016,7 hPa 0,0 l/m 8,8 km/h (2 Bft) W 269 0 min 0,000 mm 0,0 UV-I 74 W/m 4,2 C 5,0 C 16,1 km/h (3 Bft) 97,56 %
16.04.2017 16:28 6,8 C 84 % 1016,7 hPa 0,0 l/m 15,3 km/h (3 Bft) W-SW 258 0 min 0,000 mm 0,0 UV-I 70 W/m 4,3 C 1,1 C 24,1 km/h (4 Bft) 100,00 %
16.04.2017 16:30 6,8 C 84 % 1016,8 hPa 0,2 l/m 24,3 km/h (4 Bft) W-SW 245 0 min 0,000 mm 0,0 UV-I 66 W/m 4,3 C -2,3 C 38,6 km/h (5 Bft) 96,61 %
16.04.2017 16:32 6,7 C 84 % 1016,8 hPa 0,0 l/m 21,6 km/h (4 Bft) W-SW 251 0 min 0,000 mm 0,0 UV-I 66 W/m 4,2 C -1,5 C 35,4 km/h (5 Bft) 97,73 %
16.04.2017 16:34 6,7 C 84 % 1016,8 hPa 0,0 l/m 16,5 km/h (3 Bft) W-SW 254 0 min 0,000 mm 0,0 UV-I 83 W/m 4,2 C 0,4 C 27,4 km/h (4 Bft) 96,43 %
16.04.2017 16:36 6,6 C 85 % 1016,8 hPa 0,0 l/m 14,1 km/h (3 Bft) W 266 0 min 0,000 mm 0,0 UV-I 102 W/m 4,3 C 1,5 C 27,4 km/h (4 Bft) 97,56 %
16.04.2017 16:38 6,5 C 86 % 1016,7 hPa 0,0 l/m 16,3 km/h (3 Bft) W-SW 253 0 min 0,000 mm 0,0 UV-I 106 W/m 4,3 C 0,3 C 20,9 km/h (4 Bft) 98,21 %
16.04.2017 16:40 6,4 C 85 % 1016,7 hPa 0,0 l/m 20,5 km/h (4 Bft) W-SW 242 0 min 0,000 mm 0,0 UV-I 104 W/m 4,1 C -1,5 C 25,7 km/h (4 Bft) 97,44 %
16.04.2017 16:42 6,3 C 85 % 1016,7 hPa 0,0 l/m 20,3 km/h (4 Bft) W-SW 248 0 min 0,000 mm 0,0 UV-I 104 W/m 4,0 C -1,6 C 29,0 km/h (5 Bft) 96,36 %
16.04.2017 16:44 6,3 C 85 % 1016,7 hPa 0,0 l/m 18,4 km/h (3 Bft) W-SW 254 0 min 0,000 mm 0,0 UV-I 110 W/m 4,0 C -0,9 C 24,1 km/h (4 Bft) 100,00 %
16.04.2017 16:46 6,2 C 85 % 1016,7 hPa 0,0 l/m 14,4 km/h (3 Bft) SW 219 0 min 0,000 mm 0,0 UV-I 118 W/m 3,9 C 0,8 C 25,7 km/h (4 Bft) 96,00 %
16.04.2017 16:48 6,2 C 86 % 1016,7 hPa 0,0 l/m 13,2 km/h (3 Bft) SW 229 0 min 0,000 mm 0,0 UV-I 120 W/m 4,0 C 1,5 C 19,3 km/h (3 Bft) 97,56 %
16.04.2017 16:50 6,2 C 87 % 1016,6 hPa 0,0 l/m 10,8 km/h (2 Bft) W-SW 253 0 min 0,000 mm 0,0 UV-I 120 W/m 4,2 C 2,9 C 16,1 km/h (3 Bft) 98,11 %
16.04.2017 16:52 6,3 C 87 % 1016,6 hPa 0,0 l/m 13,1 km/h (3 Bft) W-SW 244 0 min 0,000 mm 0,0 UV-I 125 W/m 4,3 C 1,6 C 17,7 km/h (3 Bft) 97,73 %
16.04.2017 16:54 6,3 C 86 % 1016,6 hPa 0,0 l/m 13,6 km/h (3 Bft) SW 228 0 min 0,000 mm 0,1 UV-I 132 W/m 4,1 C 1,4 C 22,5 km/h (4 Bft) 96,43 %
16.04.2017 16:56 6,3 C 87 % 1016,5 hPa 0,0 l/m 11,3 km/h (2 Bft) SW 216 0 min 0,000 mm 0,5 UV-I 147 W/m 4,3 C 2,7 C 17,7 km/h (3 Bft) 97,37 %
16.04.2017 16:58 6,4 C 87 % 1016,6 hPa 0,0 l/m 13,5 km/h (3 Bft) W-SW 244 0 min 0,000 mm 0,5 UV-I 159 W/m 4,4 C 1,5 C 20,9 km/h (4 Bft) 95,12 %
16.04.2017 17:00 6,4 C 87 % 1016,5 hPa 0,0 l/m 15,2 km/h (3 Bft) W-SW 257 0 min 0,076 mm 0,5 UV-I 162 W/m 4,4 C 0,7 C 22,5 km/h (4 Bft) 98,00 %
16.04.2017 17:02 6,5 C 87 % 1016,5 hPa 0,0 l/m 13,7 km/h (3 Bft) S-SW 213 0 min 0,000 mm 0,5 UV-I 160 W/m 4,5 C 1,5 C 20,9 km/h (4 Bft) 98,21 %
16.04.2017 17:04 6,5 C 87 % 1016,5 hPa 0,0 l/m 14,8 km/h (3 Bft) SW 234 0 min 0,000 mm 0,5 UV-I 160 W/m 4,5 C 1,0 C 20,9 km/h (4 Bft) 95,12 %
16.04.2017 17:06 6,6 C 87 % 1016,4 hPa 0,0 l/m 13,8 km/h (3 Bft) S-SW 194 0 min 0,000 mm 0,5 UV-I 161 W/m 4,6 C 1,6 C 19,3 km/h (3 Bft) 97,87 %
16.04.2017 17:08 6,6 C 86 % 1016,5 hPa 0,0 l/m 13,3 km/h (3 Bft) SW 234 0 min 0,000 mm 0,5 UV-I 163 W/m 4,4 C 1,9 C 20,9 km/h (4 Bft) 96,00 %
16.04.2017 17:10 6,6 C 86 % 1016,4 hPa 0,0 l/m 12,5 km/h (3 Bft) SW 228 0 min 0,000 mm 0,5 UV-I 165 W/m 4,4 C 2,3 C 22,5 km/h (4 Bft) 97,56 %
16.04.2017 17:12 6,7 C 86 % 1016,5 hPa 0,0 l/m 12,8 km/h (3 Bft) S-SW 198 0 min 0,000 mm 0,5 UV-I 166 W/m 4,5 C 2,3 C 20,9 km/h (4 Bft) 96,00 %
16.04.2017 17:14 6,7 C 86 % 1016,5 hPa 0,0 l/m 16,6 km/h (3 Bft) W-SW 246 0 min 0,000 mm 0,5 UV-I 164 W/m 4,5 C 0,4 C 24,1 km/h (4 Bft) 100,00 %
16.04.2017 17:16 6,8 C 86 % 1016,5 hPa 0,0 l/m 13,6 km/h (3 Bft) W-SW 238 0 min 0,000 mm 0,4 UV-I 160 W/m 4,6 C 2,0 C 17,7 km/h (3 Bft) 97,73 %
16.04.2017 17:18 6,8 C 86 % 1016,5 hPa 0,0 l/m 10,8 km/h (2 Bft) SW 229 0 min 0,000 mm 0,0 UV-I 156 W/m 4,6 C 3,5 C 19,3 km/h (3 Bft) 98,11 %
16.04.2017 17:20 6,8 C 85 % 1016,4 hPa 0,0 l/m 19,7 km/h (3 Bft) S-SW 202 0 min 0,000 mm 0,0 UV-I 153 W/m 4,5 C -0,7 C 29,0 km/h (5 Bft) 94,74 %
16.04.2017 17:22 6,8 C 85 % 1016,5 hPa 0,0 l/m 19,1 km/h (3 Bft) SW 222 0 min 0,000 mm 0,0 UV-I 153 W/m 4,5 C -0,5 C 30,6 km/h (5 Bft) 100,00 %
16.04.2017 17:24 6,8 C 86 % 1016,4 hPa 0,0 l/m 17,6 km/h (3 Bft) W-SW 242 0 min 0,000 mm 0,0 UV-I 155 W/m 4,6 C 0,1 C 29,0 km/h (5 Bft) 100,00 %
16.04.2017 17:26 6,8 C 86 % 1016,4 hPa 0,0 l/m 19,5 km/h (3 Bft) SW 224 0 min 0,000 mm 0,0 UV-I 154 W/m 4,6 C -0,7 C 25,7 km/h (4 Bft) 100,00 %
16.04.2017 17:28 6,8 C 86 % 1016,4 hPa 0,0 l/m 15,4 km/h (3 Bft) SW 223 0 min 0,000 mm 0,0 UV-I 152 W/m 4,6 C 1,1 C 29,0 km/h (5 Bft) 100,00 %
16.04.2017 17:30 6,7 C 85 % 1016,5 hPa 0,0 l/m 19,4 km/h (3 Bft) SW 219 0 min 0,000 mm 0,0 UV-I 150 W/m 4,4 C -0,7 C 29,0 km/h (5 Bft) 98,21 %
16.04.2017 17:32 6,7 C 85 % 1016,5 hPa 0,0 l/m 19,3 km/h (3 Bft) W-SW 242 0 min 0,000 mm 0,0 UV-I 151 W/m 4,4 C -0,7 C 27,4 km/h (4 Bft) 100,00 %
16.04.2017 17:34 6,7 C 85 % 1016,4 hPa 0,0 l/m 16,3 km/h (3 Bft) SW 225 0 min 0,000 mm 0,0 UV-I 153 W/m 4,4 C 0,5 C 27,4 km/h (4 Bft) 98,59 %
16.04.2017 17:36 6,7 C 85 % 1016,4 hPa 0,0 l/m 17,9 km/h (3 Bft) SW 218 0 min 0,000 mm 0,0 UV-I 153 W/m 4,4 C -0,2 C 24,1 km/h (4 Bft) 97,73 %
16.04.2017 17:38 6,7 C 85 % 1016,4 hPa 0,0 l/m 19,5 km/h (3 Bft) W-SW 238 0 min 0,000 mm 0,0 UV-I 153 W/m 4,4 C -0,8 C 32,2 km/h (5 Bft) 96,00 %
16.04.2017 17:40 6,7 C 85 % 1016,4 hPa 0,0 l/m 17,1 km/h (3 Bft) S 188 0 min 0,000 mm 0,0 UV-I 153 W/m 4,4 C 0,2 C 25,7 km/h (4 Bft) 97,87 %
16.04.2017 17:42 6,7 C 85 % 1016,4 hPa 0,0 l/m 16,8 km/h (3 Bft) W-SW 239 0 min 0,000 mm 0,0 UV-I 153 W/m 4,4 C 0,3 C 27,4 km/h (4 Bft) 95,45 %
16.04.2017 17:44 6,7 C 85 % 1016,4 hPa 0,0 l/m 16,5 km/h (3 Bft) SW 215 0 min 0,000 mm 0,0 UV-I 155 W/m 4,4 C 0,4 C 22,5 km/h (4 Bft) 97,56 %
16.04.2017 17:46 6,7 C 85 % 1016,4 hPa 0,0 l/m 15,8 km/h (3 Bft) SW 216 0 min 0,000 mm 0,0 UV-I 153 W/m 4,4 C 0,8 C 22,5 km/h (4 Bft) 96,23 %
16.04.2017 17:48 6,6 C 85 % 1016,4 hPa 0,0 l/m 16,1 km/h (3 Bft) W 263 0 min 0,000 mm 0,0 UV-I 148 W/m 4,3 C 0,5 C 22,5 km/h (4 Bft) 97,56 %
16.04.2017 17:50 6,6 C 85 % 1016,5 hPa 0,0 l/m 18,9 km/h (3 Bft) SW 229 0 min 0,000 mm 0,0 UV-I 141 W/m 4,3 C -0,7 C 30,6 km/h (5 Bft) 98,11 %
16.04.2017 17:53 6,6 C 85 % 1016,4 hPa 0,0 l/m 17,8 km/h (3 Bft) W-SW 246 0 min 0,000 mm 0,0 UV-I 129 W/m 4,3 C -0,2 C 29,0 km/h (5 Bft) 96,92 %
16.04.2017 17:54 6,6 C 86 % 1016,4 hPa 0,0 l/m 13,0 km/h (3 Bft) S 184 0 min 0,000 mm 0,0 UV-I 123 W/m 4,4 C 2,0 C 22,5 km/h (4 Bft) 100,00 %
16.04.2017 17:56 6,7 C 86 % 1016,4 hPa 0,0 l/m 14,2 km/h (3 Bft) SW 225 0 min 0,000 mm 0,0 UV-I 123 W/m 4,5 C 1,5 C 22,5 km/h (4 Bft) 97,56 %
16.04.2017 17:58 6,7 C 86 % 1016,5 hPa 0,0 l/m 15,5 km/h (3 Bft) W 267 0 min 0,000 mm 0,0 UV-I 126 W/m 4,5 C 0,9 C 22,5 km/h (4 Bft) 98,21 %
16.04.2017 18:00 6,8 C 86 % 1016,5 hPa 0,0 l/m 19,4 km/h (3 Bft) W-SW 250 0 min 0,000 mm 0,0 UV-I 127 W/m 4,6 C -0,6 C 29,0 km/h (5 Bft) 97,44 %
16.04.2017 18:02 6,8 C 85 % 1016,5 hPa 0,0 l/m 20,8 km/h (4 Bft) W-SW 238 0 min 0,076 mm 0,0 UV-I 127 W/m 4,5 C -1,1 C 29,0 km/h (5 Bft) 96,36 %
16.04.2017 18:04 6,8 C 84 % 1016,4 hPa 0,0 l/m 20,6 km/h (4 Bft) SW 236 0 min 0,000 mm 0,0 UV-I 125 W/m 4,3 C -1,1 C 29,0 km/h (5 Bft) 97,62 %
16.04.2017 18:06 6,9 C 84 % 1016,5 hPa 0,0 l/m 18,9 km/h (3 Bft) SW 232 0 min 0,000 mm 0,0 UV-I 123 W/m 4,4 C -0,3 C 25,7 km/h (4 Bft) 97,87 %
16.04.2017 18:08 6,9 C 84 % 1016,5 hPa 0,0 l/m 18,9 km/h (3 Bft) SW 227 0 min 0,000 mm 0,0 UV-I 120 W/m 4,4 C -0,3 C 35,4 km/h (5 Bft) 100,00 %
16.04.2017 18:10 6,9 C 84 % 1016,4 hPa 0,0 l/m 19,2 km/h (3 Bft) SW 217 0 min 0,000 mm 0,0 UV-I 116 W/m 4,4 C -0,4 C 25,7 km/h (4 Bft) 100,00 %
16.04.2017 18:12 6,9 C 84 % 1016,5 hPa 0,0 l/m 17,2 km/h (3 Bft) SW 228 0 min 0,000 mm 0,0 UV-I 114 W/m 4,4 C 0,4 C 33,8 km/h (5 Bft) 100,00 %
16.04.2017 18:14 6,9 C 83 % 1016,5 hPa 0,2 l/m 19,1 km/h (3 Bft) SW 236 0 min 0,000 mm 0,0 UV-I 114 W/m 4,2 C -0,4 C 29,0 km/h (5 Bft) 100,00 %
16.04.2017 18:16 6,9 C 83 % 1016,5 hPa 0,0 l/m 19,4 km/h (3 Bft) SW 233 0 min 0,000 mm 0,0 UV-I 113 W/m 4,2 C -0,5 C 32,2 km/h (5 Bft) 97,56 %
16.04.2017 18:18 6,9 C 83 % 1016,4 hPa 0,0 l/m 20,5 km/h (4 Bft) W 275 0 min 0,000 mm 0,0 UV-I 112 W/m 4,2 C -0,9 C 35,4 km/h (5 Bft) 100,00 %
16.04.2017 18:20 6,9 C 83 % 1016,4 hPa 0,0 l/m 21,4 km/h (4 Bft) W-SW 240 0 min 0,000 mm 0,0 UV-I 109 W/m 4,2 C -1,2 C 29,0 km/h (5 Bft) 100,00 %
16.04.2017 18:22 6,8 C 82 % 1016,4 hPa 0,0 l/m 18,2 km/h (3 Bft) W 273 0 min 0,000 mm 0,0 UV-I 106 W/m 3,9 C -0,2 C 25,7 km/h (4 Bft) 97,14 %
16.04.2017 18:24 6,8 C 82 % 1016,5 hPa 0,0 l/m 24,1 km/h (4 Bft) SW 221 0 min 0,000 mm 0,0 UV-I 103 W/m 3,9 C -2,2 C 38,6 km/h (5 Bft) 98,11 %
16.04.2017 18:26 6,8 C 82 % 1016,7 hPa 0,0 l/m 20,0 km/h (4 Bft) W-SW 244 0 min 0,000 mm 0,0 UV-I 101 W/m 3,9 C -0,8 C 35,4 km/h (5 Bft) 100,00 %
16.04.2017 18:28 6,7 C 82 % 1016,6 hPa 0,0 l/m 16,9 km/h (3 Bft) W-SW 240 0 min 0,000 mm 0,0 UV-I 97 W/m 3,8 C 0,3 C 27,4 km/h (4 Bft) 98,21 %
16.04.2017 18:30 6,7 C 82 % 1016,6 hPa 0,0 l/m 19,3 km/h (3 Bft) W 275 0 min 0,000 mm 0,0 UV-I 93 W/m 3,8 C -0,7 C 35,4 km/h (5 Bft) 97,56 %
16.04.2017 18:32 6,7 C 82 % 1016,6 hPa 0,0 l/m 18,3 km/h (3 Bft) W-SW 239 0 min 0,000 mm 0,0 UV-I 85 W/m 3,8 C -0,3 C 29,0 km/h (5 Bft) 100,00 %
16.04.2017 18:34 6,7 C 83 % 1016,7 hPa 0,0 l/m 14,8 km/h (3 Bft) W-SW 246 0 min 0,000 mm 0,0 UV-I 77 W/m 4,0 C 1,2 C 19,3 km/h (3 Bft) 100,00 %
16.04.2017 18:36 6,7 C 83 % 1016,7 hPa 0,0 l/m 15,0 km/h (3 Bft) W-SW 239 0 min 0,000 mm 0,0 UV-I 72 W/m 4,0 C 1,1 C 24,1 km/h (4 Bft) 97,87 %
16.04.2017 18:38 6,7 C 83 % 1016,7 hPa 0,0 l/m 16,8 km/h (3 Bft) SW 234 0 min 0,000 mm 0,0 UV-I 71 W/m 4,0 C 0,3 C 24,1 km/h (4 Bft) 100,00 %
16.04.2017 18:40 6,7 C 83 % 1016,6 hPa 0,0 l/m 16,2 km/h (3 Bft) W 267 0 min 0,000 mm 0,0 UV-I 68 W/m 4,0 C 0,6 C 27,4 km/h (4 Bft) 100,00 %
16.04.2017 18:42 6,7 C 83 % 1016,7 hPa 0,0 l/m 17,8 km/h (3 Bft) W 259 0 min 0,000 mm 0,0 UV-I 61 W/m 4,0 C -0,1 C 27,4 km/h (4 Bft) 100,00 %
16.04.2017 18:44 6,6 C 82 % 1016,7 hPa 0,0 l/m 20,6 km/h (4 Bft) W 263 0 min 0,000 mm 0,0 UV-I 54 W/m 3,8 C -1,3 C 27,4 km/h (4 Bft) 97,62 %
16.04.2017 18:46 6,6 C 83 % 1016,7 hPa 0,0 l/m 19,4 km/h (3 Bft) W-SW 252 0 min 0,000 mm 0,0 UV-I 49 W/m 3,9 C -0,9 C 27,4 km/h (4 Bft) 100,00 %
16.04.2017 18:48 6,6 C 82 % 1016,7 hPa 0,0 l/m 22,2 km/h (4 Bft) S-SW 208 0 min 0,000 mm 0,0 UV-I 42 W/m 3,8 C -1,9 C 33,8 km/h (5 Bft) 98,11 %
16.04.2017 18:50 6,6 C 82 % 1016,7 hPa 0,0 l/m 20,0 km/h (4 Bft) W 261 0 min 0,000 mm 0,0 UV-I 39 W/m 3,8 C -1,1 C 32,2 km/h (5 Bft) 100,00 %
16.04.2017 18:52 6,6 C 83 % 1016,8 hPa 0,0 l/m 24,1 km/h (4 Bft) W 259 0 min 0,000 mm 0,0 UV-I 39 W/m 3,9 C -2,5 C 33,8 km/h (5 Bft) 100,00 %
16.04.2017 18:54 6,5 C 83 % 1016,8 hPa 0,0 l/m 18,6 km/h (3 Bft) W-SW 251 0 min 0,000 mm 0,0 UV-I 35 W/m 3,8 C -0,7 C 25,7 km/h (4 Bft) 100,00 %
16.04.2017 18:56 6,4 C 83 % 1016,8 hPa 0,0 l/m 20,6 km/h (4 Bft) SW 219 0 min 0,000 mm 0,0 UV-I 33 W/m 3,7 C -1,6 C 29,0 km/h (5 Bft) 100,00 %
16.04.2017 18:58 6,4 C 83 % 1016,8 hPa 0,0 l/m 21,1 km/h (4 Bft) W-SW 251 0 min 0,000 mm 0,0 UV-I 31 W/m 3,7 C -1,8 C 32,2 km/h (5 Bft) 97,73 %
16.04.2017 19:00 6,3 C 83 % 1016,8 hPa 0,0 l/m 24,6 km/h (4 Bft) W 261 0 min 0,000 mm 0,0 UV-I 30 W/m 3,6 C -3,1 C 35,4 km/h (5 Bft) 97,56 %
16.04.2017 19:02 6,2 C 83 % 1016,8 hPa 0,0 l/m 21,0 km/h (4 Bft) W-SW 258 0 min 0,077 mm 0,0 UV-I 30 W/m 3,5 C -2,0 C 32,2 km/h (5 Bft) 100,00 %
16.04.2017 19:04 6,1 C 84 % 1016,9 hPa 0,0 l/m 22,9 km/h (4 Bft) W-SW 244 0 min 0,000 mm 0,0 UV-I 28 W/m 3,6 C -2,8 C 32,2 km/h (5 Bft) 100,00 %
16.04.2017 19:06 5,9 C 84 % 1017,0 hPa 0,0 l/m 20,1 km/h (4 Bft) W-SW 250 0 min 0,000 mm 0,0 UV-I 28 W/m 3,4 C -2,0 C 29,0 km/h (5 Bft) 100,00 %
16.04.2017 19:08 5,8 C 84 % 1016,9 hPa 0,0 l/m 20,7 km/h (4 Bft) SW 235 0 min 0,000 mm 0,0 UV-I 26 W/m 3,3 C -2,4 C 32,2 km/h (5 Bft) 100,00 %
16.04.2017 19:10 5,7 C 84 % 1016,9 hPa 0,0 l/m 19,0 km/h (3 Bft) SW 228 0 min 0,000 mm 0,0 UV-I 26 W/m 3,2 C -1,9 C 32,2 km/h (5 Bft) 100,00 %
16.04.2017 19:12 5,6 C 84 % 1016,9 hPa 0,0 l/m 24,7 km/h (4 Bft) SW 217 0 min 0,000 mm 0,0 UV-I 25 W/m 3,1 C -4,0 C 37,0 km/h (5 Bft) 97,37 %
16.04.2017 19:14 5,5 C 85 % 1017,0 hPa 0,0 l/m 22,2 km/h (4 Bft) SW 225 0 min 0,000 mm 0,0 UV-I 25 W/m 3,2 C -3,3 C 35,4 km/h (5 Bft) 100,00 %
16.04.2017 19:16 5,4 C 85 % 1017,0 hPa 0,0 l/m 26,9 km/h (4 Bft) W-SW 244 0 min 0,000 mm 0,0 UV-I 24 W/m 3,1 C -5,0 C 43,5 km/h (6 Bft) 100,00 %
16.04.2017 19:18 5,3 C 85 % 1017,0 hPa 0,0 l/m 19,3 km/h (3 Bft) SW 214 0 min 0,000 mm 0,0 UV-I 23 W/m 3,0 C -2,5 C 32,2 km/h (5 Bft) 100,00 %
16.04.2017 19:20 5,3 C 85 % 1017,0 hPa 0,0 l/m 14,7 km/h (3 Bft) SW 227 0 min 0,000 mm 0,0 UV-I 22 W/m 3,0 C -0,4 C 25,7 km/h (4 Bft) 100,00 %
16.04.2017 19:22 5,2 C 86 % 1017,0 hPa 0,0 l/m 16,7 km/h (3 Bft) SW 220 0 min 0,000 mm 0,0 UV-I 21 W/m 3,1 C -1,5 C 24,1 km/h (4 Bft) 100,00 %
16.04.2017 19:24 5,2 C 86 % 1016,9 hPa 0,0 l/m 18,4 km/h (3 Bft) W-SW 237 0 min 0,000 mm 0,0 UV-I 19 W/m 3,1 C -2,3 C 27,4 km/h (4 Bft) 98,00 %
16.04.2017 19:26 5,2 C 86 % 1017,0 hPa 0,0 l/m 18,5 km/h (3 Bft) SW 234 0 min 0,000 mm 0,0 UV-I 18 W/m 3,1 C -2,3 C 33,8 km/h (5 Bft) 100,00 %
16.04.2017 19:28 5,2 C 86 % 1017,0 hPa 0,0 l/m 17,8 km/h (3 Bft) S-SW 196 0 min 0,000 mm 0,0 UV-I 16 W/m 3,1 C -2,0 C 29,0 km/h (5 Bft) 95,12 %
16.04.2017 19:30 5,2 C 86 % 1017,0 hPa 0,0 l/m 18,3 km/h (3 Bft) SW 232 0 min 0,000 mm 0,0 UV-I 14 W/m 3,1 C -2,2 C 29,0 km/h (5 Bft) 100,00 %
16.04.2017 19:32 5,2 C 87 % 1017,0 hPa 0,0 l/m 18,0 km/h (3 Bft) W-SW 241 0 min 0,000 mm 0,0 UV-I 12 W/m 3,2 C -2,1 C 27,4 km/h (4 Bft) 98,21 %
16.04.2017 19:34 5,2 C 87 % 1017,1 hPa 0,0 l/m 17,3 km/h (3 Bft) SW 218 0 min 0,000 mm 0,0 UV-I 11 W/m 3,2 C -1,8 C 24,1 km/h (4 Bft) 98,21 %
16.04.2017 19:36 5,2 C 86 % 1017,0 hPa 0,0 l/m 19,0 km/h (3 Bft) SW 219 0 min 0,000 mm 0,0 UV-I 11 W/m 3,1 C -2,5 C 29,0 km/h (5 Bft) 100,00 %
16.04.2017 19:38 5,2 C 87 % 1017,1 hPa 0,0 l/m 16,9 km/h (3 Bft) SW 232 0 min 0,000 mm 0,0 UV-I 11 W/m 3,2 C -1,6 C 29,0 km/h (5 Bft) 95,38 %
16.04.2017 19:40 5,2 C 87 % 1017,1 hPa 0,0 l/m 20,8 km/h (4 Bft) SW 223 0 min 0,000 mm 0,0 UV-I 9 W/m 3,2 C -3,2 C 29,0 km/h (5 Bft) 96,61 %
16.04.2017 19:42 5,2 C 87 % 1017,1 hPa 0,0 l/m 17,8 km/h (3 Bft) SW 220 0 min 0,000 mm 0,0 UV-I 9 W/m 3,2 C -2,0 C 27,4 km/h (4 Bft) 97,87 %
16.04.2017 19:44 5,2 C 87 % 1017,2 hPa 0,0 l/m 17,2 km/h (3 Bft) W-SW 240 0 min 0,000 mm 0,0 UV-I 7 W/m 3,2 C -1,7 C 24,1 km/h (4 Bft) 95,12 %
16.04.2017 19:46 5,2 C 87 % 1017,2 hPa 0,0 l/m 17,8 km/h (3 Bft) W-SW 247 0 min 0,000 mm 0,0 UV-I 7 W/m 3,2 C -2,0 C 24,1 km/h (4 Bft) 95,45 %
16.04.2017 19:48 5,2 C 87 % 1017,2 hPa 0,0 l/m 13,4 km/h (3 Bft) SW 215 0 min 0,000 mm 0,0 UV-I 7 W/m 3,2 C 0,2 C 19,3 km/h (3 Bft) 94,34 %
16.04.2017 19:50 5,1 C 87 % 1017,2 hPa 0,0 l/m 13,9 km/h (3 Bft) W-SW 254 0 min 0,000 mm 0,0 UV-I 5 W/m 3,1 C -0,2 C 24,1 km/h (4 Bft) 92,00 %
16.04.2017 19:52 5,1 C 87 % 1017,2 hPa 0,0 l/m 15,6 km/h (3 Bft) S-SW 200 0 min 0,000 mm 0,0 UV-I 5 W/m 3,1 C -1,1 C 24,1 km/h (4 Bft) 97,37 %
16.04.2017 19:54 5,1 C 88 % 1017,2 hPa 0,0 l/m 16,2 km/h (3 Bft) SW 227 0 min 0,000 mm 0,0 UV-I 5 W/m 3,3 C -1,4 C 25,7 km/h (4 Bft) 95,24 %
16.04.2017 19:56 5,1 C 87 % 1017,3 hPa 0,0 l/m 13,1 km/h (3 Bft) S-SW 207 0 min 0,000 mm 0,0 UV-I 5 W/m 3,1 C 0,2 C 19,3 km/h (3 Bft) 92,31 %
16.04.2017 19:58 5,1 C 88 % 1017,3 hPa 0,0 l/m 17,2 km/h (3 Bft) SW 230 0 min 0,000 mm 0,0 UV-I 5 W/m 3,3 C -1,9 C 27,4 km/h (4 Bft) 90,00 %
16.04.2017 20:00 5,0 C 88 % 1017,3 hPa 0,0 l/m 13,8 km/h (3 Bft) SW 226 0 min 0,000 mm 0,0 UV-I 2 W/m 3,2 C -0,3 C 17,7 km/h (3 Bft) 94,34 %
16.04.2017 20:02 5,0 C 88 % 1017,4 hPa 0,0 l/m 12,7 km/h (3 Bft) SW 227 0 min 0,025 mm 0,0 UV-I 0 W/m 3,2 C 0,3 C 19,3 km/h (3 Bft) 92,31 %
16.04.2017 20:04 5,0 C 88 % 1017,4 hPa 0,0 l/m 18,0 km/h (3 Bft) W-SW 239 0 min 0,000 mm 0,0 UV-I 0 W/m 3,2 C -2,3 C 29,0 km/h (5 Bft) 94,34 %
16.04.2017 20:06 5,1 C 89 % 1017,4 hPa 0,0 l/m 16,0 km/h (3 Bft) SW 219 0 min 0,000 mm 0,0 UV-I 0 W/m 3,4 C -1,3 C 22,5 km/h (4 Bft) 94,74 %
16.04.2017 20:08 5,1 C 89 % 1017,4 hPa 0,0 l/m 14,6 km/h (3 Bft) W 273 0 min 0,000 mm 0,0 UV-I 0 W/m 3,4 C -0,6 C 20,9 km/h (4 Bft) 87,50 %
16.04.2017 20:10 5,1 C 89 % 1017,4 hPa 0,0 l/m 16,2 km/h (3 Bft) W-SW 245 0 min 0,000 mm 0,0 UV-I 0 W/m 3,4 C -1,4 C 22,5 km/h (4 Bft) 96,15 %
16.04.2017 20:12 5,1 C 89 % 1017,4 hPa 0,0 l/m 17,5 km/h (3 Bft) W-SW 239 0 min 0,000 mm 0,0 UV-I 0 W/m 3,4 C -2,0 C 25,7 km/h (4 Bft) 95,59 %
16.04.2017 20:14 5,1 C 89 % 1017,4 hPa 0,0 l/m 16,5 km/h (3 Bft) SW 235 0 min 0,000 mm 0,0 UV-I 0 W/m 3,4 C -1,5 C 30,6 km/h (5 Bft) 94,74 %
16.04.2017 20:16 5,1 C 89 % 1017,3 hPa 0,0 l/m 20,1 km/h (4 Bft) SW 232 0 min 0,000 mm 0,0 UV-I 0 W/m 3,4 C -3,1 C 29,0 km/h (5 Bft) 89,29 %
16.04.2017 20:18 5,2 C 89 % 1017,4 hPa 0,0 l/m 16,9 km/h (3 Bft) SW 223 0 min 0,000 mm 0,0 UV-I 0 W/m 3,5 C -1,6 C 25,7 km/h (4 Bft) 100,00 %
16.04.2017 20:20 5,2 C 89 % 1017,4 hPa 0,0 l/m 19,2 km/h (3 Bft) SW 236 0 min 0,000 mm 0,0 UV-I 0 W/m 3,5 C -2,6 C 29,0 km/h (5 Bft) 94,34 %
16.04.2017 20:22 5,2 C 89 % 1017,4 hPa 0,0 l/m 15,3 km/h (3 Bft) SW 223 0 min 0,000 mm 0,0 UV-I 0 W/m 3,5 C -0,8 C 24,1 km/h (4 Bft) 95,12 %
16.04.2017 20:24 5,2 C 89 % 1017,3 hPa 0,0 l/m 14,7 km/h (3 Bft) SW 234 0 min 0,000 mm 0,0 UV-I 0 W/m 3,5 C -0,5 C 25,7 km/h (4 Bft) 98,00 %
16.04.2017 20:26 5,2 C 89 % 1017,4 hPa 0,0 l/m 15,0 km/h (3 Bft) SW 234 0 min 0,000 mm 0,0 UV-I 0 W/m 3,5 C -0,7 C 24,1 km/h (4 Bft) 95,12 %
16.04.2017 20:28 5,2 C 89 % 1017,4 hPa 0,0 l/m 15,9 km/h (3 Bft) W-SW 239 0 min 0,000 mm 0,0 UV-I 0 W/m 3,5 C -1,1 C 29,0 km/h (5 Bft) 95,45 %
16.04.2017 20:30 5,2 C 89 % 1017,4 hPa 0,0 l/m 13,7 km/h (3 Bft) S-SW 211 0 min 0,000 mm 0,0 UV-I 0 W/m 3,5 C 0,0 C 20,9 km/h (4 Bft) 96,36 %
16.04.2017 20:32 5,2 C 88 % 1017,4 hPa 0,0 l/m 18,0 km/h (3 Bft) SW 229 0 min 0,000 mm 0,0 UV-I 0 W/m 3,4 C -2,1 C 25,7 km/h (4 Bft) 95,24 %
16.04.2017 20:34 5,2 C 88 % 1017,4 hPa 0,0 l/m 14,7 km/h (3 Bft) S-SW 194 0 min 0,000 mm 0,0 UV-I 0 W/m 3,4 C -0,5 C 20,9 km/h (4 Bft) 96,43 %
16.04.2017 20:36 5,1 C 88 % 1017,4 hPa 0,0 l/m 14,2 km/h (3 Bft) SW 215 0 min 0,000 mm 0,0 UV-I 0 W/m 3,3 C -0,4 C 22,5 km/h (4 Bft) 95,12 %
16.04.2017 20:38 5,1 C 88 % 1017,4 hPa 0,0 l/m 17,1 km/h (3 Bft) SW 214 0 min 0,000 mm 0,0 UV-I 0 W/m 3,3 C -1,8 C 22,5 km/h (4 Bft) 94,00 %
16.04.2017 20:40 5,1 C 88 % 1017,4 hPa 0,0 l/m 20,4 km/h (4 Bft) W-SW 243 0 min 0,000 mm 0,0 UV-I 0 W/m 3,3 C -3,2 C 25,7 km/h (4 Bft) 89,74 %
16.04.2017 20:42 5,1 C 88 % 1017,5 hPa 0,0 l/m 14,1 km/h (3 Bft) W-SW 241 0 min 0,000 mm 0,0 UV-I 0 W/m 3,3 C -0,3 C 20,9 km/h (4 Bft) 91,38 %
16.04.2017 20:44 5,1 C 88 % 1017,5 hPa 0,0 l/m 14,4 km/h (3 Bft) SW 214 0 min 0,000 mm 0,0 UV-I 0 W/m 3,3 C -0,5 C 20,9 km/h (4 Bft) 92,86 %
16.04.2017 20:46 5,1 C 88 % 1017,5 hPa 0,0 l/m 14,0 km/h (3 Bft) W-SW 254 0 min 0,000 mm 0,0 UV-I 0 W/m 3,3 C -0,3 C 19,3 km/h (3 Bft) 96,00 %
16.04.2017 20:48 5,1 C 88 % 1017,6 hPa 0,0 l/m 13,8 km/h (3 Bft) W-SW 239 0 min 0,000 mm 0,0 UV-I 0 W/m 3,3 C -0,2 C 19,3 km/h (3 Bft) 96,00 %
16.04.2017 20:50 5,1 C 89 % 1017,6 hPa 0,0 l/m 13,2 km/h (3 Bft) W-SW 242 0 min 0,000 mm 0,0 UV-I 0 W/m 3,4 C 0,2 C 17,7 km/h (3 Bft) 97,37 %
16.04.2017 20:52 5,0 C 89 % 1017,7 hPa 0,0 l/m 12,9 km/h (3 Bft) W 262 0 min 0,000 mm 0,0 UV-I 0 W/m 3,3 C 0,2 C 19,3 km/h (3 Bft) 91,49 %
16.04.2017 20:54 5,0 C 89 % 1017,7 hPa 0,0 l/m 12,1 km/h (2 Bft) SW 219 0 min 0,000 mm 0,0 UV-I 0 W/m 3,3 C 0,7 C 19,3 km/h (3 Bft) 94,00 %
16.04.2017 20:56 5,0 C 89 % 1017,8 hPa 0,0 l/m 8,9 km/h (2 Bft) SW 227 0 min 0,000 mm 0,0 UV-I 0 W/m 3,3 C 2,9 C 14,5 km/h (3 Bft) 96,00 %
16.04.2017 20:58 5,0 C 88 % 1017,8 hPa 0,0 l/m 12,5 km/h (3 Bft) SW 215 0 min 0,000 mm 0,0 UV-I 0 W/m 3,2 C 0,5 C 17,7 km/h (3 Bft) 100,00 %
16.04.2017 21:00 5,0 C 89 % 1017,8 hPa 0,0 l/m 10,2 km/h (2 Bft) SW 220 0 min 0,000 mm 0,0 UV-I 0 W/m 3,3 C 1,9 C 17,7 km/h (3 Bft) 100,00 %
16.04.2017 21:02 5,0 C 89 % 1017,8 hPa 0,0 l/m 10,4 km/h (2 Bft) S-SW 204 0 min 0,025 mm 0,0 UV-I 0 W/m 3,3 C 1,8 C 19,3 km/h (3 Bft) 98,00 %
16.04.2017 21:04 5,0 C 89 % 1017,9 hPa 0,0 l/m 9,7 km/h (2 Bft) SW 236 0 min 0,000 mm 0,0 UV-I 0 W/m 3,3 C 2,3 C 17,7 km/h (3 Bft) 100,00 %
16.04.2017 21:06 5,0 C 89 % 1017,9 hPa 0,0 l/m 10,2 km/h (2 Bft) S-SW 198 0 min 0,000 mm 0,0 UV-I 0 W/m 3,3 C 1,9 C 17,7 km/h (3 Bft) 95,74 %
16.04.2017 21:08 5,0 C 89 % 1018,0 hPa 0,0 l/m 7,8 km/h (2 Bft) W-SW 251 0 min 0,000 mm 0,0 UV-I 0 W/m 3,3 C 3,8 C 14,5 km/h (3 Bft) 97,14 %
16.04.2017 21:10 4,9 C 89 % 1018,0 hPa 0,0 l/m 10,4 km/h (2 Bft) W-SW 244 0 min 0,000 mm 0,0 UV-I 0 W/m 3,2 C 1,7 C 19,3 km/h (3 Bft) 98,31 %
16.04.2017 21:12 5,0 C 89 % 1018,0 hPa 0,0 l/m 10,7 km/h (2 Bft) SW 236 0 min 0,000 mm 0,0 UV-I 0 W/m 3,3 C 1,6 C 19,3 km/h (3 Bft) 100,00 %
16.04.2017 21:14 5,0 C 89 % 1018,0 hPa 0,0 l/m 6,7 km/h (2 Bft) SW 223 0 min 0,000 mm 0,0 UV-I 0 W/m 3,3 C 4,8 C 11,3 km/h (2 Bft) 96,00 %
16.04.2017 21:16 5,0 C 89 % 1018,0 hPa 0,0 l/m 9,9 km/h (2 Bft) SW 227 0 min 0,000 mm 0,0 UV-I 0 W/m 3,3 C 2,1 C 14,5 km/h (3 Bft) 100,00 %
16.04.2017 21:18 5,0 C 89 % 1018,0 hPa 0,0 l/m 9,9 km/h (2 Bft) S-SW 207 0 min 0,000 mm 0,0 UV-I 0 W/m 3,3 C 2,1 C 16,1 km/h (3 Bft) 100,00 %
16.04.2017 21:20 5,1 C 89 % 1018,0 hPa 0,0 l/m 11,5 km/h (2 Bft) SW 225 0 min 0,000 mm 0,0 UV-I 0 W/m 3,4 C 1,2 C 17,7 km/h (3 Bft) 98,51 %
16.04.2017 21:22 5,1 C 89 % 1018,0 hPa 0,0 l/m 12,4 km/h (3 Bft) SW 233 0 min 0,000 mm 0,0 UV-I 0 W/m 3,4 C 0,6 C 20,9 km/h (4 Bft) 100,00 %
16.04.2017 21:24 5,1 C 89 % 1018,1 hPa 0,0 l/m 8,7 km/h (2 Bft) SW 233 0 min 0,000 mm 0,0 UV-I 0 W/m 3,4 C 3,1 C 16,1 km/h (3 Bft) 98,11 %
16.04.2017 21:26 5,1 C 89 % 1018,1 hPa 0,0 l/m 10,2 km/h (2 Bft) W-SW 244 0 min 0,000 mm 0,0 UV-I 0 W/m 3,4 C 2,0 C 12,9 km/h (3 Bft) 100,00 %
16.04.2017 21:28 5,1 C 89 % 1018,1 hPa 0,0 l/m 10,7 km/h (2 Bft) SW 215 0 min 0,000 mm 0,0 UV-I 0 W/m 3,4 C 1,7 C 14,5 km/h (3 Bft) 97,73 %
16.04.2017 21:30 5,2 C 89 % 1018,1 hPa 0,0 l/m 12,0 km/h (2 Bft) SW 225 0 min 0,000 mm 0,0 UV-I 0 W/m 3,5 C 1,0 C 20,9 km/h (4 Bft) 98,28 %
16.04.2017 21:32 5,2 C 89 % 1018,1 hPa 0,0 l/m 15,3 km/h (3 Bft) SW 227 0 min 0,000 mm 0,0 UV-I 0 W/m 3,5 C -0,8 C 22,5 km/h (4 Bft) 100,00 %
16.04.2017 21:34 5,2 C 89 % 1018,1 hPa 0,0 l/m 12,9 km/h (3 Bft) SW 231 0 min 0,000 mm 0,0 UV-I 0 W/m 3,5 C 0,5 C 16,1 km/h (3 Bft) 97,06 %
16.04.2017 21:36 5,2 C 89 % 1018,1 hPa 0,0 l/m 10,6 km/h (2 Bft) SW 221 0 min 0,000 mm 0,0 UV-I 0 W/m 3,5 C 1,9 C 14,5 km/h (3 Bft) 97,14 %
16.04.2017 21:38 5,2 C 89 % 1018,1 hPa 0,0 l/m 9,7 km/h (2 Bft) SW 236 0 min 0,000 mm 0,0 UV-I 0 W/m 3,5 C 2,5 C 14,5 km/h (3 Bft) 96,43 %
16.04.2017 21:40 5,2 C 90 % 1018,1 hPa 0,0 l/m 11,1 km/h (2 Bft) W-SW 242 0 min 0,000 mm 0,0 UV-I 0 W/m 3,7 C 1,6 C 16,1 km/h (3 Bft) 94,74 %
16.04.2017 21:42 5,2 C 90 % 1018,2 hPa 0,0 l/m 12,7 km/h (3 Bft) W-SW 254 0 min 0,000 mm 0,0 UV-I 0 W/m 3,7 C 0,6 C 17,7 km/h (3 Bft) 98,21 %
16.04.2017 21:44 5,2 C 90 % 1018,2 hPa 0,0 l/m 9,4 km/h (2 Bft) SW 224 0 min 0,000 mm 0,0 UV-I 0 W/m 3,7 C 2,7 C 16,1 km/h (3 Bft) 96,30 %
16.04.2017 21:46 5,2 C 90 % 1018,2 hPa 0,0 l/m 14,3 km/h (3 Bft) W-SW 242 0 min 0,000 mm 0,0 UV-I 0 W/m 3,7 C -0,3 C 20,9 km/h (4 Bft) 95,31 %
16.04.2017 21:48 5,3 C 90 % 1018,2 hPa 0,0 l/m 12,2 km/h (2 Bft) W-SW 252 0 min 0,000 mm 0,0 UV-I 0 W/m 3,8 C 1,0 C 19,3 km/h (3 Bft) 96,00 %
16.04.2017 21:50 5,3 C 90 % 1018,2 hPa 0,0 l/m 14,7 km/h (3 Bft) W-SW 253 0 min 0,000 mm 0,0 UV-I 0 W/m 3,8 C -0,4 C 25,7 km/h (4 Bft) 96,00 %
16.04.2017 21:52 5,3 C 90 % 1018,2 hPa 0,0 l/m 13,4 km/h (3 Bft) SW 224 0 min 0,000 mm 0,0 UV-I 0 W/m 3,8 C 0,3 C 19,3 km/h (3 Bft) 97,87 %
16.04.2017 21:54 5,3 C 89 % 1018,1 hPa 0,0 l/m 16,5 km/h (3 Bft) W-SW 248 0 min 0,000 mm 0,0 UV-I 0 W/m 3,6 C -1,3 C 25,7 km/h (4 Bft) 94,44 %
16.04.2017 21:56 5,3 C 89 % 1018,2 hPa 0,0 l/m 15,3 km/h (3 Bft) W 259 0 min 0,000 mm 0,0 UV-I 0 W/m 3,6 C -0,7 C 20,9 km/h (4 Bft) 96,36 %
16.04.2017 21:58 5,3 C 89 % 1018,2 hPa 0,0 l/m 11,9 km/h (2 Bft) W 265 0 min 0,000 mm 0,0 UV-I 0 W/m 3,6 C 1,2 C 14,5 km/h (3 Bft) 90,48 %
16.04.2017 22:00 5,3 C 89 % 1018,2 hPa 0,0 l/m 14,3 km/h (3 Bft) W 259 0 min 0,000 mm 0,0 UV-I 0 W/m 3,6 C -0,2 C 20,9 km/h (4 Bft) 95,45 %
16.04.2017 22:02 5,3 C 89 % 1018,3 hPa 0,0 l/m 14,7 km/h (3 Bft) SW 227 0 min 0,026 mm 0,0 UV-I 0 W/m 3,6 C -0,4 C 19,3 km/h (3 Bft) 96,00 %
16.04.2017 22:04 5,3 C 89 % 1018,3 hPa 0,0 l/m 16,9 km/h (3 Bft) W 261 0 min 0,000 mm 0,0 UV-I 0 W/m 3,6 C -1,5 C 22,5 km/h (4 Bft) 94,74 %
16.04.2017 22:06 5,3 C 89 % 1018,2 hPa 0,0 l/m 12,9 km/h (3 Bft) W 271 0 min 0,000 mm 0,0 UV-I 0 W/m 3,6 C 0,6 C 19,3 km/h (3 Bft) 94,64 %
16.04.2017 22:08 5,3 C 89 % 1018,3 hPa 0,0 l/m 13,8 km/h (3 Bft) W 267 0 min 0,000 mm 0,0 UV-I 0 W/m 3,6 C 0,1 C 17,7 km/h (3 Bft) 95,12 %
16.04.2017 22:10 5,3 C 89 % 1018,3 hPa 0,0 l/m 15,3 km/h (3 Bft) W-SW 238 0 min 0,000 mm 0,0 UV-I 0 W/m 3,6 C -0,7 C 19,3 km/h (3 Bft) 98,21 %
16.04.2017 22:12 5,2 C 89 % 1018,3 hPa 0,0 l/m 14,6 km/h (3 Bft) W 263 0 min 0,000 mm 0,0 UV-I 0 W/m 3,5 C -0,5 C 19,3 km/h (3 Bft) 96,00 %
16.04.2017 22:14 5,2 C 89 % 1018,3 hPa 0,0 l/m 9,0 km/h (2 Bft) W-SW 250 0 min 0,000 mm 0,0 UV-I 0 W/m 3,5 C 3,0 C 16,1 km/h (3 Bft) 100,00 %
16.04.2017 22:16 5,2 C 88 % 1018,3 hPa 0,0 l/m 14,4 km/h (3 Bft) SW 221 0 min 0,000 mm 0,0 UV-I 0 W/m 3,4 C -0,4 C 24,1 km/h (4 Bft) 100,00 %
16.04.2017 22:18 5,2 C 88 % 1018,2 hPa 0,0 l/m 10,8 km/h (2 Bft) W-SW 239 0 min 0,000 mm 0,0 UV-I 0 W/m 3,4 C 1,7 C 16,1 km/h (3 Bft) 94,34 %
16.04.2017 22:20 5,2 C 88 % 1018,3 hPa 0,0 l/m 13,2 km/h (3 Bft) SW 227 0 min 0,000 mm 0,0 UV-I 0 W/m 3,4 C 0,3 C 20,9 km/h (4 Bft) 100,00 %
16.04.2017 22:22 5,2 C 89 % 1018,3 hPa 0,0 l/m 15,8 km/h (3 Bft) W-SW 238 0 min 0,000 mm 0,0 UV-I 0 W/m 3,5 C -1,1 C 20,9 km/h (4 Bft) 98,11 %
16.04.2017 22:24 5,2 C 89 % 1018,3 hPa 0,0 l/m 14,2 km/h (3 Bft) SW 234 0 min 0,000 mm 0,0 UV-I 0 W/m 3,5 C -0,3 C 19,3 km/h (3 Bft) 100,00 %
16.04.2017 22:26 5,2 C 89 % 1018,3 hPa 0,0 l/m 12,6 km/h (3 Bft) SW 221 0 min 0,000 mm 0,0 UV-I 0 W/m 3,5 C 0,6 C 19,3 km/h (3 Bft) 98,21 %
16.04.2017 22:28 5,2 C 89 % 1018,3 hPa 0,0 l/m 13,8 km/h (3 Bft) W-SW 248 0 min 0,000 mm 0,0 UV-I 0 W/m 3,5 C -0,0 C 24,1 km/h (4 Bft) 100,00 %
16.04.2017 22:30 5,2 C 89 % 1018,3 hPa 0,0 l/m 10,9 km/h (2 Bft) W-SW 239 0 min 0,000 mm 0,0 UV-I 0 W/m 3,5 C 1,7 C 17,7 km/h (3 Bft) 100,00 %
16.04.2017 22:32 5,2 C 89 % 1018,3 hPa 0,0 l/m 10,6 km/h (2 Bft) SW 230 0 min 0,000 mm 0,0 UV-I 0 W/m 3,5 C 1,9 C 16,1 km/h (3 Bft) 100,00 %
16.04.2017 22:34 5,2 C 89 % 1018,3 hPa 0,0 l/m 13,1 km/h (3 Bft) SW 227 0 min 0,000 mm 0,0 UV-I 0 W/m 3,5 C 0,3 C 19,3 km/h (3 Bft) 97,87 %
16.04.2017 22:36 5,1 C 89 % 1018,4 hPa 0,0 l/m 11,8 km/h (2 Bft) W-SW 249 0 min 0,000 mm 0,0 UV-I 0 W/m 3,4 C 1,0 C 17,7 km/h (3 Bft) 98,18 %
16.04.2017 22:38 5,1 C 90 % 1018,3 hPa 0,0 l/m 13,0 km/h (3 Bft) SW 215 0 min 0,000 mm 0,0 UV-I 0 W/m 3,6 C 0,3 C 20,9 km/h (4 Bft) 98,11 %
16.04.2017 22:40 5,1 C 90 % 1018,3 hPa 0,0 l/m 9,3 km/h (2 Bft) SW 236 0 min 0,000 mm 0,0 UV-I 0 W/m 3,6 C 2,7 C 16,1 km/h (3 Bft) 100,00 %
16.04.2017 22:42 5,1 C 90 % 1018,3 hPa 0,0 l/m 12,8 km/h (3 Bft) W-SW 250 0 min 0,000 mm 0,0 UV-I 0 W/m 3,6 C 0,4 C 20,9 km/h (4 Bft) 98,21 %
16.04.2017 22:44 5,1 C 90 % 1018,4 hPa 0,0 l/m 12,2 km/h (2 Bft) W-SW 256 0 min 0,000 mm 0,0 UV-I 0 W/m 3,6 C 0,8 C 17,7 km/h (3 Bft) 97,92 %
16.04.2017 22:46 5,1 C 90 % 1018,4 hPa 0,0 l/m 14,9 km/h (3 Bft) W-SW 252 0 min 0,000 mm 0,0 UV-I 0 W/m 3,6 C -0,8 C 24,1 km/h (4 Bft) 97,14 %
16.04.2017 22:48 5,1 C 90 % 1018,4 hPa 0,0 l/m 15,1 km/h (3 Bft) SW 236 0 min 0,000 mm 0,0 UV-I 0 W/m 3,6 C -0,9 C 25,7 km/h (4 Bft) 97,87 %
16.04.2017 22:50 5,1 C 90 % 1018,4 hPa 0,0 l/m 12,2 km/h (2 Bft) W-SW 244 0 min 0,000 mm 0,0 UV-I 0 W/m 3,6 C 0,8 C 17,7 km/h (3 Bft) 98,00 %
16.04.2017 22:52 5,1 C 90 % 1018,4 hPa 0,0 l/m 13,8 km/h (3 Bft) W 259 0 min 0,000 mm 0,0 UV-I 0 W/m 3,6 C -0,2 C 20,9 km/h (4 Bft) 98,15 %
16.04.2017 22:54 5,1 C 90 % 1018,4 hPa 0,0 l/m 10,2 km/h (2 Bft) W 260 0 min 0,000 mm 0,0 UV-I 0 W/m 3,6 C 2,0 C 14,5 km/h (3 Bft) 97,87 %
16.04.2017 22:56 5,1 C 90 % 1018,5 hPa 0,0 l/m 11,3 km/h (2 Bft) SW 231 0 min 0,000 mm 0,0 UV-I 0 W/m 3,6 C 1,3 C 19,3 km/h (3 Bft) 100,00 %
16.04.2017 22:58 5,1 C 90 % 1018,5 hPa 0,0 l/m 15,2 km/h (3 Bft) W 265 0 min 0,000 mm 0,0 UV-I 0 W/m 3,6 C -0,9 C 24,1 km/h (4 Bft) 97,37 %
16.04.2017 23:00 5,1 C 89 % 1018,5 hPa 0,0 l/m 10,1 km/h (2 Bft) W 259 0 min 0,000 mm 0,0 UV-I 0 W/m 3,4 C 2,1 C 16,1 km/h (3 Bft) 98,18 %
16.04.2017 23:02 5,1 C 89 % 1018,5 hPa 0,0 l/m 8,8 km/h (2 Bft) SW 234 0 min 0,025 mm 0,0 UV-I 0 W/m 3,4 C 3,1 C 16,1 km/h (3 Bft) 97,87 %
16.04.2017 23:04 5,1 C 89 % 1018,5 hPa 0,0 l/m 11,4 km/h (2 Bft) W-SW 258 0 min 0,000 mm 0,0 UV-I 0 W/m 3,4 C 1,2 C 16,1 km/h (3 Bft) 95,74 %
16.04.2017 23:06 5,1 C 89 % 1018,6 hPa 0,0 l/m 13,1 km/h (3 Bft) SW 235 0 min 0,000 mm 0,0 UV-I 0 W/m 3,4 C 0,2 C 20,9 km/h (4 Bft) 100,00 %
16.04.2017 23:08 5,1 C 89 % 1018,5 hPa 0,0 l/m 12,8 km/h (3 Bft) S-SW 203 0 min 0,000 mm 0,0 UV-I 0 W/m 3,4 C 0,4 C 20,9 km/h (4 Bft) 97,56 %
16.04.2017 23:10 5,0 C 89 % 1018,6 hPa 0,0 l/m 12,3 km/h (3 Bft) W-SW 254 0 min 0,000 mm 0,0 UV-I 0 W/m 3,3 C 0,6 C 16,1 km/h (3 Bft) 100,00 %
16.04.2017 23:12 5,0 C 89 % 1018,5 hPa 0,0 l/m 11,4 km/h (2 Bft) W-SW 254 0 min 0,000 mm 0,0 UV-I 0 W/m 3,3 C 1,1 C 19,3 km/h (3 Bft) 97,73 %
16.04.2017 23:14 5,0 C 88 % 1018,6 hPa 0,0 l/m 13,1 km/h (3 Bft) W 259 0 min 0,000 mm 0,0 UV-I 0 W/m 3,2 C 0,1 C 19,3 km/h (3 Bft) 100,00 %
16.04.2017 23:16 5,0 C 88 % 1018,6 hPa 0,0 l/m 11,8 km/h (2 Bft) W-SW 246 0 min 0,000 mm 0,0 UV-I 0 W/m 3,2 C 0,9 C 17,7 km/h (3 Bft) 97,87 %
16.04.2017 23:18 5,0 C 88 % 1018,6 hPa 0,0 l/m 8,3 km/h (2 Bft) W-SW 242 0 min 0,000 mm 0,0 UV-I 0 W/m 3,2 C 3,4 C 12,9 km/h (3 Bft) 98,00 %
16.04.2017 23:20 5,0 C 88 % 1018,6 hPa 0,0 l/m 10,9 km/h (2 Bft) W-SW 240 0 min 0,000 mm 0,0 UV-I 0 W/m 3,2 C 1,5 C 16,1 km/h (3 Bft) 96,00 %
16.04.2017 23:22 5,1 C 88 % 1018,6 hPa 0,0 l/m 10,5 km/h (2 Bft) W-SW 244 0 min 0,000 mm 0,0 UV-I 0 W/m 3,3 C 1,8 C 14,5 km/h (3 Bft) 100,00 %
16.04.2017 23:24 5,0 C 88 % 1018,5 hPa 0,0 l/m 12,8 km/h (3 Bft) SW 236 0 min 0,000 mm 0,0 UV-I 0 W/m 3,2 C 0,3 C 19,3 km/h (3 Bft) 97,56 %
16.04.2017 23:26 5,0 C 88 % 1018,5 hPa 0,0 l/m 13,8 km/h (3 Bft) W-SW 252 0 min 0,000 mm 0,0 UV-I 0 W/m 3,2 C -0,3 C 19,3 km/h (3 Bft) 100,00 %
16.04.2017 23:28 5,0 C 88 % 1018,6 hPa 0,0 l/m 10,0 km/h (2 Bft) W-SW 238 0 min 0,000 mm 0,0 UV-I 0 W/m 3,2 C 2,1 C 16,1 km/h (3 Bft) 94,00 %
16.04.2017 23:30 5,0 C 88 % 1018,6 hPa 0,0 l/m 12,4 km/h (3 Bft) W-SW 252 0 min 0,000 mm 0,0 UV-I 0 W/m 3,2 C 0,5 C 17,7 km/h (3 Bft) 97,87 %
16.04.2017 23:32 5,0 C 88 % 1018,7 hPa 0,0 l/m 9,9 km/h (2 Bft) SW 233 0 min 0,000 mm 0,0 UV-I 0 W/m 3,2 C 2,1 C 16,1 km/h (3 Bft) 97,37 %
16.04.2017 23:34 5,0 C 88 % 1018,7 hPa 0,0 l/m 9,8 km/h (2 Bft) SW 233 0 min 0,000 mm 0,0 UV-I 0 W/m 3,2 C 2,2 C 16,1 km/h (3 Bft) 95,12 %
16.04.2017 23:36 5,0 C 88 % 1018,7 hPa 0,0 l/m 12,3 km/h (3 Bft) SW 224 0 min 0,000 mm 0,0 UV-I 0 W/m 3,2 C 0,6 C 20,9 km/h (4 Bft) 94,23 %
16.04.2017 23:38 5,0 C 89 % 1018,7 hPa 0,0 l/m 9,0 km/h (2 Bft) SW 229 0 min 0,000 mm 0,0 UV-I 0 W/m 3,3 C 2,8 C 12,9 km/h (3 Bft) 95,45 %
16.04.2017 23:40 4,9 C 89 % 1018,7 hPa 0,0 l/m 11,1 km/h (2 Bft) W-SW 241 0 min 0,000 mm 0,0 UV-I 0 W/m 3,2 C 1,2 C 19,3 km/h (3 Bft) 96,43 %
16.04.2017 23:42 4,9 C 89 % 1018,7 hPa 0,0 l/m 12,9 km/h (3 Bft) S-SO 164 0 min 0,000 mm 0,0 UV-I 0 W/m 3,2 C 0,1 C 20,9 km/h (4 Bft) 95,45 %
16.04.2017 23:44 4,9 C 89 % 1018,7 hPa 0,0 l/m 15,5 km/h (3 Bft) W-SW 245 0 min 0,000 mm 0,0 UV-I 0 W/m 3,2 C -1,3 C 22,5 km/h (4 Bft) 93,62 %
16.04.2017 23:46 4,9 C 89 % 1018,7 hPa 0,0 l/m 16,5 km/h (3 Bft) SW 219 0 min 0,000 mm 0,0 UV-I 0 W/m 3,2 C -1,8 C 24,1 km/h (4 Bft) 92,45 %
16.04.2017 23:48 4,8 C 89 % 1018,7 hPa 0,0 l/m 12,4 km/h (3 Bft) SW 229 0 min 0,000 mm 0,0 UV-I 0 W/m 3,1 C 0,3 C 19,3 km/h (3 Bft) 92,68 %
16.04.2017 23:50 4,8 C 89 % 1018,7 hPa 0,0 l/m 15,5 km/h (3 Bft) SW 218 0 min 0,000 mm 0,0 UV-I 0 W/m 3,1 C -1,4 C 22,5 km/h (4 Bft) 95,74 %
16.04.2017 23:52 4,8 C 89 % 1018,8 hPa 0,0 l/m 17,2 km/h (3 Bft) W-SW 255 0 min 0,000 mm 0,0 UV-I 0 W/m 3,1 C -2,2 C 29,0 km/h (5 Bft) 92,00 %
16.04.2017 23:54 4,8 C 89 % 1018,8 hPa 0,0 l/m 16,0 km/h (3 Bft) W-SW 256 0 min 0,000 mm 0,0 UV-I 0 W/m 3,1 C -1,7 C 24,1 km/h (4 Bft) 93,18 %
16.04.2017 23:56 4,8 C 89 % 1018,7 hPa 0,0 l/m 15,7 km/h (3 Bft) W-SW 254 0 min 0,000 mm 0,0 UV-I 0 W/m 3,1 C -1,5 C 27,4 km/h (4 Bft) 95,24 %
16.04.2017 23:58 4,7 C 89 % 1018,7 hPa 0,0 l/m 16,0 km/h (3 Bft) SW 235 0 min 0,000 mm 0,0 UV-I 0 W/m 3,0 C -1,8 C 24,1 km/h (4 Bft) 92,31 %
_ Min-Zeit 23:58 12:24 00:04 - 11:56 - - - - - - 12:24 19:16 00:00 20:08
Minimum _ 4,7 C 53 % 1013,4 hPa - 5,1 km/h (1 Bft) - - - - - - 1,0 C -5,0 C 11,3 km/h (2 Bft) 87,50 %
_ Max-Zeit 12:38 04:46 23:52 02:34 14:34 - - 10:04 13:00 12:24 11:18 00:52 11:56 14:34 00:18
Maximum _ 10,6 C 93 % 1018,8 hPa 0,4 l/m 29,7 km/h
SW (5 Bft)
- - 2 min 0,330 mm 3,1 UV-I 777 W/m 8,3 C 9,7 C 45,1 km/h
SW (6 Bft)
100,00 %
Durchschnitt _ 7,4 C 83 % 1016,2 hPa #4,4 l/m 14,4 km/h (3 Bft) W-SW - #3:08 h #1,981 mm 1,7 UV-I 226 W/m 4,5 C 2,5 C 22,6 km/h (4 Bft) 97,77 %